Time,TemperatureF,DewpointF,PressureIn,WindDirection,WindDirectionDegrees,WindSpeedMPH,WindSpeedGustMPH,Humidity,HourlyPrecipIn,Conditions,Clouds,dailyrainin,SoftwareType,DateUTC
2013-03-22 00:00:00,31.6,16.0,30.00,NW,313,0.0,0.0,52,0.00,,,0.00,Wunderground v.1.15,2013-03-22 04:00:00,
2013-03-22 00:01:00,31.6,16.4,30.00,NW,313,0.0,0.0,53,0.00,,,0.00,Wunderground v.1.15,2013-03-22 04:01:00,
2013-03-22 00:06:00,31.7,16.5,30.00,NW,313,0.0,0.0,53,0.00,,,0.00,Wunderground v.1.15,2013-03-22 04:06:00,
2013-03-22 00:07:00,31.7,16.5,30.00,NW,313,0.0,0.0,53,0.00,,,0.00,Wunderground v.1.15,2013-03-22 04:07:00,
2013-03-22 00:08:00,31.7,16.1,30.00,NW,313,0.0,0.0,52,0.00,,,0.00,Wunderground v.1.15,2013-03-22 04:08:00,
2013-03-22 00:13:00,31.6,16.4,30.00,NW,313,0.0,0.0,53,0.00,,,0.00,Wunderground v.1.15,2013-03-22 04:13:00,
2013-03-22 00:14:00,31.5,16.7,30.00,NW,313,0.0,0.0,54,0.00,,,0.00,Wunderground v.1.15,2013-03-22 04:14:00,
2013-03-22 00:15:00,31.4,16.7,30.00,NW,313,0.0,0.0,54,0.00,,,0.00,Wunderground v.1.15,2013-03-22 04:15:00,
2013-03-22 00:21:00,31.1,15.9,30.00,NW,313,0.0,0.0,53,0.00,,,0.00,Wunderground v.1.15,2013-03-22 04:21:00,
2013-03-22 00:22:00,31.0,15.8,30.00,NW,313,1.0,1.0,53,0.00,,,0.00,Wunderground v.1.15,2013-03-22 04:22:00,
2013-03-22 00:23:00,31.0,15.8,30.00,NW,313,0.0,1.0,53,0.00,,,0.00,Wunderground v.1.15,2013-03-22 04:23:00,
2013-03-22 00:28:00,31.1,15.9,30.00,NW,313,1.0,1.0,53,0.00,,,0.00,Wunderground v.1.15,2013-03-22 04:28:00,
2013-03-22 00:30:00,31.1,16.4,30.00,NW,313,0.0,0.0,54,0.00,,,0.00,Wunderground v.1.15,2013-03-22 04:30:00,
2013-03-22 00:31:00,31.1,16.4,30.00,NW,313,0.0,0.0,54,0.00,,,0.00,Wunderground v.1.15,2013-03-22 04:31:00,
2013-03-22 00:35:00,31.1,15.9,30.00,NW,313,0.0,0.0,53,0.00,,,0.00,Wunderground v.1.15,2013-03-22 04:35:00,
2013-03-22 00:37:00,31.0,16.3,30.00,NW,313,0.0,0.0,54,0.00,,,0.00,Wunderground v.1.15,2013-03-22 04:37:00,
2013-03-22 00:38:00,31.0,16.3,30.00,NW,313,0.0,0.0,54,0.00,,,0.00,Wunderground v.1.15,2013-03-22 04:38:00,
2013-03-22 00:40:00,31.0,16.7,30.01,NW,313,0.0,0.0,55,0.00,,,0.00,Wunderground v.1.15,2013-03-22 04:40:00,
2013-03-22 00:42:00,30.9,16.6,30.01,NW,313,0.0,0.0,55,0.00,,,0.00,Wunderground v.1.15,2013-03-22 04:42:00,
2013-03-22 00:47:00,30.8,15.7,30.00,NW,313,0.0,2.0,53,0.00,,,0.00,Wunderground v.1.15,2013-03-22 04:47:00,
2013-03-22 00:48:00,30.8,16.1,30.00,NW,313,0.0,2.0,54,0.00,,,0.00,Wunderground v.1.15,2013-03-22 04:48:00,
2013-03-22 00:49:00,30.8,16.1,30.00,NW,313,0.0,2.0,54,0.00,,,0.00,Wunderground v.1.15,2013-03-22 04:49:00,
2013-03-22 00:54:00,30.8,16.1,30.00,NW,313,0.0,0.0,54,0.00,,,0.00,Wunderground v.1.15,2013-03-22 04:54:00,
2013-03-22 00:55:00,30.8,16.1,30.00,NW,313,0.0,0.0,54,0.00,,,0.00,Wunderground v.1.15,2013-03-22 04:55:00,
2013-03-22 00:57:00,30.7,16.0,30.00,NW,313,0.0,0.0,54,0.00,,,0.00,Wunderground v.1.15,2013-03-22 04:57:00,
2013-03-22 01:01:00,30.7,16.0,30.00,NW,313,0.0,0.0,54,0.00,,,0.00,Wunderground v.1.15,2013-03-22 05:01:00,
2013-03-22 01:02:00,30.7,16.0,30.00,NW,313,0.0,0.0,54,0.00,,,0.00,Wunderground v.1.15,2013-03-22 05:02:00,
2013-03-22 01:03:00,30.6,16.3,30.00,NW,313,1.0,1.0,55,0.00,,,0.00,Wunderground v.1.15,2013-03-22 05:03:00,
2013-03-22 01:06:00,30.5,16.7,30.00,NW,313,1.0,1.0,56,0.00,,,0.00,Wunderground v.1.15,2013-03-22 05:06:00,
2013-03-22 01:08:00,30.4,16.6,30.00,NW,313,1.0,1.0,56,0.00,,,0.00,Wunderground v.1.15,2013-03-22 05:08:00,
2013-03-22 01:12:00,30.3,16.0,30.00,NW,313,0.0,2.0,55,0.00,,,0.00,Wunderground v.1.15,2013-03-22 05:12:00,
2013-03-22 01:13:00,30.3,16.5,30.00,NW,313,0.0,2.0,56,0.00,,,0.00,Wunderground v.1.15,2013-03-22 05:13:00,
2013-03-22 01:14:00,30.3,16.5,29.99,NW,313,0.0,2.0,56,0.00,,,0.00,Wunderground v.1.15,2013-03-22 05:14:00,
2013-03-22 01:18:00,30.3,17.3,30.00,NW,313,0.0,2.0,58,0.00,,,0.00,Wunderground v.1.15,2013-03-22 05:18:00,
2013-03-22 01:19:00,30.3,17.3,30.00,NW,313,0.0,2.0,58,0.00,,,0.00,Wunderground v.1.15,2013-03-22 05:19:00,
2013-03-22 01:23:00,30.2,16.8,30.00,NW,313,0.0,0.0,57,0.00,,,0.00,Wunderground v.1.15,2013-03-22 05:23:00,
2013-03-22 01:24:00,30.2,17.2,30.00,NW,313,0.0,0.0,58,0.00,,,0.00,Wunderground v.1.15,2013-03-22 05:24:00,
2013-03-22 01:27:00,30.1,17.1,30.00,NW,313,0.0,0.0,58,0.00,,,0.00,Wunderground v.1.15,2013-03-22 05:27:00,
2013-03-22 01:28:00,30.1,17.1,30.00,NW,313,0.0,0.0,58,0.00,,,0.00,Wunderground v.1.15,2013-03-22 05:28:00,
2013-03-22 01:30:00,30.0,16.6,30.00,NW,313,1.0,1.0,57,0.00,,,0.00,Wunderground v.1.15,2013-03-22 05:30:00,
2013-03-22 01:33:00,30.0,16.6,30.00,NW,313,0.0,1.0,57,0.00,,,0.00,Wunderground v.1.15,2013-03-22 05:33:00,
2013-03-22 01:35:00,30.0,16.6,30.00,NW,313,0.0,1.0,57,0.00,,,0.00,Wunderground v.1.15,2013-03-22 05:35:00,
2013-03-22 01:38:00,30.1,17.1,30.00,NW,313,0.0,1.0,58,0.00,,,0.00,Wunderground v.1.15,2013-03-22 05:38:00,
2013-03-22 01:40:00,30.0,16.6,30.01,NW,313,0.0,0.0,57,0.00,,,0.00,Wunderground v.1.15,2013-03-22 05:40:00,
2013-03-22 01:44:00,30.1,16.7,30.00,NW,313,0.0,0.0,57,0.00,,,0.00,Wunderground v.1.15,2013-03-22 05:44:00,
2013-03-22 01:46:00,30.0,17.0,30.00,NW,313,0.0,0.0,58,0.00,,,0.00,Wunderground v.1.15,2013-03-22 05:46:00,
2013-03-22 01:48:00,30.0,17.4,30.00,NW,313,0.0,0.0,59,0.00,,,0.00,Wunderground v.1.15,2013-03-22 05:48:00,
2013-03-22 01:49:00,29.9,17.7,30.00,NW,313,0.0,0.0,60,0.00,,,0.00,Wunderground v.1.15,2013-03-22 05:49:00,
2013-03-22 01:54:00,29.7,16.7,30.00,NW,313,0.0,0.0,58,0.00,,,0.00,Wunderground v.1.15,2013-03-22 05:54:00,
2013-03-22 01:55:00,29.7,16.7,30.00,NW,313,1.0,1.0,58,0.00,,,0.00,Wunderground v.1.15,2013-03-22 05:55:00,
2013-03-22 01:56:00,29.7,16.3,30.00,NW,313,0.0,1.0,57,0.00,,,0.00,Wunderground v.1.15,2013-03-22 05:56:00,
2013-03-22 01:58:00,29.7,16.7,30.00,NW,313,0.0,1.0,58,0.00,,,0.00,Wunderground v.1.15,2013-03-22 05:58:00,
2013-03-22 02:00:00,29.7,17.1,30.00,NW,313,0.0,0.0,59,0.00,,,0.00,Wunderground v.1.15,2013-03-22 06:00:00,
2013-03-22 02:01:00,29.7,17.5,30.00,NW,313,0.0,0.0,60,0.00,,,0.00,Wunderground v.1.15,2013-03-22 06:01:00,
2013-03-22 02:02:00,29.7,17.1,30.00,NW,313,0.0,0.0,59,0.00,,,0.00,Wunderground v.1.15,2013-03-22 06:02:00,
2013-03-22 02:03:00,29.7,17.1,30.00,NW,313,0.0,0.0,59,0.00,,,0.00,Wunderground v.1.15,2013-03-22 06:03:00,
2013-03-22 02:05:00,29.7,17.1,30.01,NW,313,0.0,0.0,59,0.00,,,0.00,Wunderground v.1.15,2013-03-22 06:05:00,
2013-03-22 02:06:00,29.6,17.0,30.01,NW,313,0.0,0.0,59,0.00,,,0.00,Wunderground v.1.15,2013-03-22 06:06:00,
2013-03-22 02:08:00,29.6,17.0,30.01,NW,313,0.0,0.0,59,0.00,,,0.00,Wunderground v.1.15,2013-03-22 06:08:00,
2013-03-22 02:10:00,29.5,16.9,30.01,NW,313,0.0,0.0,59,0.00,,,0.00,Wunderground v.1.15,2013-03-22 06:10:00,
2013-03-22 02:13:00,29.5,16.5,30.01,NW,313,1.0,2.0,58,0.00,,,0.00,Wunderground v.1.15,2013-03-22 06:13:00,
2013-03-22 02:14:00,29.6,17.0,30.01,NW,313,2.0,2.0,59,0.00,,,0.00,Wunderground v.1.15,2013-03-22 06:14:00,
2013-03-22 02:15:00,29.7,17.1,30.01,NW,313,2.0,2.0,59,0.00,,,0.00,Wunderground v.1.15,2013-03-22 06:15:00,
2013-03-22 02:18:00,29.8,17.2,30.01,NW,313,0.0,2.0,59,0.00,,,0.00,Wunderground v.1.15,2013-03-22 06:18:00,
2013-03-22 02:19:00,29.8,17.2,30.01,NW,313,0.0,2.0,59,0.00,,,0.00,Wunderground v.1.15,2013-03-22 06:19:00,
2013-03-22 02:21:00,29.9,16.9,30.01,NW,313,0.0,1.0,58,0.00,,,0.00,Wunderground v.1.15,2013-03-22 06:21:00,
2013-03-22 02:23:00,29.9,16.9,30.01,NW,313,1.0,3.0,58,0.00,,,0.00,Wunderground v.1.15,2013-03-22 06:23:00,
2013-03-22 02:24:00,29.9,16.9,30.01,NW,313,0.0,3.0,58,0.00,,,0.00,Wunderground v.1.15,2013-03-22 06:24:00,
2013-03-22 02:27:00,29.9,16.9,30.01,NW,313,0.0,3.0,58,0.00,,,0.00,Wunderground v.1.15,2013-03-22 06:27:00,
2013-03-22 02:29:00,29.9,16.9,30.01,NW,313,1.0,3.0,58,0.00,,,0.00,Wunderground v.1.15,2013-03-22 06:29:00,
2013-03-22 02:32:00,30.0,17.0,30.02,NW,313,3.0,3.0,58,0.00,,,0.00,Wunderground v.1.15,2013-03-22 06:32:00,
2013-03-22 02:34:00,30.0,16.6,30.02,NW,313,0.0,3.0,57,0.00,,,0.00,Wunderground v.1.15,2013-03-22 06:34:00,
2013-03-22 02:37:00,30.1,17.1,30.02,NW,313,2.0,4.0,58,0.00,,,0.00,Wunderground v.1.15,2013-03-22 06:37:00,
2013-03-22 02:39:00,30.1,17.1,30.02,NW,313,2.0,4.0,58,0.00,,,0.00,Wunderground v.1.15,2013-03-22 06:39:00,
2013-03-22 02:40:00,30.1,16.7,30.02,NW,313,0.0,1.0,57,0.00,,,0.00,Wunderground v.1.15,2013-03-22 06:40:00,
2013-03-22 02:43:00,30.2,16.8,30.02,NW,313,2.0,3.0,57,0.00,,,0.00,Wunderground v.1.15,2013-03-22 06:43:00,
2013-03-22 02:44:00,30.2,16.8,30.02,NW,315,1.0,3.0,57,0.00,,,0.00,Wunderground v.1.15,2013-03-22 06:44:00,
2013-03-22 02:45:00,30.2,16.8,30.02,NW,315,0.0,3.0,57,0.00,,,0.00,Wunderground v.1.15,2013-03-22 06:45:00,
2013-03-22 02:46:00,30.2,16.8,30.02,NW,315,0.0,3.0,57,0.00,,,0.00,Wunderground v.1.15,2013-03-22 06:46:00,
2013-03-22 02:48:00,30.3,16.9,30.02,NW,318,0.0,3.0,57,0.00,,,0.00,Wunderground v.1.15,2013-03-22 06:48:00,
2013-03-22 02:49:00,30.3,16.5,30.02,NW,319,2.0,3.0,56,0.00,,,0.00,Wunderground v.1.15,2013-03-22 06:49:00,
2013-03-22 02:51:00,30.3,16.5,30.02,NW,319,0.0,2.0,56,0.00,,,0.00,Wunderground v.1.15,2013-03-22 06:51:00,
2013-03-22 02:53:00,30.4,16.6,30.02,ENE,61,0.0,5.0,56,0.00,,,0.00,Wunderground v.1.15,2013-03-22 06:53:00,
2013-03-22 02:54:00,30.5,16.7,30.02,ENE,61,1.0,5.0,56,0.00,,,0.00,Wunderground v.1.15,2013-03-22 06:54:00,
2013-03-22 02:56:00,30.5,16.2,30.02,ENE,60,0.0,5.0,55,0.00,,,0.00,Wunderground v.1.15,2013-03-22 06:56:00,
2013-03-22 02:57:00,30.5,16.7,30.02,ENE,61,0.0,5.0,56,0.00,,,0.00,Wunderground v.1.15,2013-03-22 06:57:00,
2013-03-22 02:59:00,30.6,16.3,30.02,ENE,61,3.0,5.0,55,0.00,,,0.00,Wunderground v.1.15,2013-03-22 06:59:00,
2013-03-22 03:02:00,30.7,16.4,30.01,ENE,60,1.0,2.0,55,0.00,,,0.00,Wunderground v.1.15,2013-03-22 07:02:00,
2013-03-22 03:04:00,30.7,16.4,30.02,ENE,61,1.0,2.0,55,0.00,,,0.00,Wunderground v.1.15,2013-03-22 07:04:00,
2013-03-22 03:05:00,30.7,16.4,30.02,ENE,61,0.0,2.0,55,0.00,,,0.00,Wunderground v.1.15,2013-03-22 07:05:00,
2013-03-22 03:07:00,30.7,16.4,30.02,ENE,61,0.0,2.0,55,0.00,,,0.00,Wunderground v.1.15,2013-03-22 07:07:00,
2013-03-22 03:09:00,30.7,16.4,30.02,ENE,60,0.0,3.0,55,0.00,,,0.00,Wunderground v.1.15,2013-03-22 07:09:00,
2013-03-22 03:10:00,30.7,16.4,30.02,ENE,61,1.0,1.0,55,0.00,,,0.00,Wunderground v.1.15,2013-03-22 07:10:00,
2013-03-22 03:12:00,30.6,16.7,30.02,ENE,60,0.0,3.0,56,0.00,,,0.00,Wunderground v.1.15,2013-03-22 07:12:00,
2013-03-22 03:14:00,30.6,16.3,30.01,ENE,61,0.0,3.0,55,0.00,,,0.00,Wunderground v.1.15,2013-03-22 07:14:00,
2013-03-22 03:15:00,30.6,16.3,30.01,ENE,60,0.0,3.0,55,0.00,,,0.00,Wunderground v.1.15,2013-03-22 07:15:00,
2013-03-22 03:17:00,30.6,16.3,30.01,ENE,61,0.0,3.0,55,0.00,,,0.00,Wunderground v.1.15,2013-03-22 07:17:00,
2013-03-22 03:18:00,30.6,16.3,30.01,ENE,61,0.0,3.0,55,0.00,,,0.00,Wunderground v.1.15,2013-03-22 07:18:00,
2013-03-22 03:19:00,30.6,16.3,30.01,ENE,60,1.0,3.0,55,0.00,,,0.00,Wunderground v.1.15,2013-03-22 07:19:00,
2013-03-22 03:21:00,30.6,16.7,30.01,ENE,60,0.0,2.0,56,0.00,,,0.00,Wunderground v.1.15,2013-03-22 07:21:00,
2013-03-22 03:23:00,30.6,16.3,30.01,ENE,61,0.0,4.0,55,0.00,,,0.00,Wunderground v.1.15,2013-03-22 07:23:00,
2013-03-22 03:24:00,30.6,16.3,30.01,ENE,61,0.0,4.0,55,0.00,,,0.00,Wunderground v.1.15,2013-03-22 07:24:00,
2013-03-22 03:25:00,30.6,16.7,30.01,ENE,61,2.0,4.0,56,0.00,,,0.00,Wunderground v.1.15,2013-03-22 07:25:00,
2013-03-22 03:26:00,30.6,15.9,30.01,ENE,60,0.0,5.0,54,0.00,,,0.00,Wunderground v.1.15,2013-03-22 07:26:00,
2013-03-22 03:28:00,30.6,16.3,30.01,ENE,61,0.0,5.0,55,0.00,,,0.00,Wunderground v.1.15,2013-03-22 07:28:00,
2013-03-22 03:29:00,30.6,16.3,30.01,ENE,61,3.0,5.0,55,0.00,,,0.00,Wunderground v.1.15,2013-03-22 07:29:00,
2013-03-22 03:30:00,30.5,16.2,30.01,ENE,61,1.0,1.0,55,0.00,,,0.00,Wunderground v.1.15,2013-03-22 07:30:00,
2013-03-22 03:31:00,30.6,16.3,30.01,ENE,61,3.0,4.0,55,0.00,,,0.00,Wunderground v.1.15,2013-03-22 07:31:00,
2013-03-22 03:33:00,30.6,16.3,30.01,ENE,61,0.0,4.0,55,0.00,,,0.00,Wunderground v.1.15,2013-03-22 07:33:00,
2013-03-22 03:34:00,30.6,16.3,30.00,ENE,61,1.0,4.0,55,0.00,,,0.00,Wunderground v.1.15,2013-03-22 07:34:00,
2013-03-22 03:35:00,30.6,16.3,30.00,ENE,61,1.0,4.0,55,0.00,,,0.00,Wunderground v.1.15,2013-03-22 07:35:00,
2013-03-22 03:36:00,30.6,16.3,30.00,ENE,61,2.0,5.0,55,0.00,,,0.00,Wunderground v.1.15,2013-03-22 07:36:00,
2013-03-22 03:38:00,30.6,16.3,30.00,ENE,61,2.0,5.0,55,0.00,,,0.00,Wunderground v.1.15,2013-03-22 07:38:00,
2013-03-22 03:39:00,30.6,16.3,30.00,ENE,61,1.0,5.0,55,0.00,,,0.00,Wunderground v.1.15,2013-03-22 07:39:00,
2013-03-22 03:40:00,30.6,16.3,30.00,ENE,61,0.0,3.0,55,0.00,,,0.00,Wunderground v.1.15,2013-03-22 07:40:00,
2013-03-22 03:41:00,30.6,16.3,30.00,ENE,61,2.0,4.0,55,0.00,,,0.00,Wunderground v.1.15,2013-03-22 07:41:00,
2013-03-22 03:43:00,30.6,16.3,30.00,ENE,61,2.0,4.0,55,0.00,,,0.00,Wunderground v.1.15,2013-03-22 07:43:00,
2013-03-22 03:44:00,30.6,16.3,30.00,ENE,61,0.0,4.0,55,0.00,,,0.00,Wunderground v.1.15,2013-03-22 07:44:00,
2013-03-22 03:45:00,30.6,16.3,30.00,ENE,60,0.0,4.0,55,0.00,,,0.00,Wunderground v.1.15,2013-03-22 07:45:00,
2013-03-22 03:47:00,30.6,16.3,30.00,ENE,60,0.0,4.0,55,0.00,,,0.00,Wunderground v.1.15,2013-03-22 07:47:00,
2013-03-22 03:48:00,30.6,16.3,30.00,ENE,61,1.0,4.0,55,0.00,,,0.00,Wunderground v.1.15,2013-03-22 07:48:00,
2013-03-22 03:49:00,30.6,16.3,30.00,ENE,60,2.0,4.0,55,0.00,,,0.00,Wunderground v.1.15,2013-03-22 07:49:00,
2013-03-22 03:51:00,30.6,16.3,30.00,ENE,61,1.0,2.0,55,0.00,,,0.00,Wunderground v.1.15,2013-03-22 07:51:00,
2013-03-22 03:53:00,30.5,16.2,30.00,ENE,60,1.0,4.0,55,0.00,,,0.00,Wunderground v.1.15,2013-03-22 07:53:00,
2013-03-22 03:55:00,30.5,16.2,30.00,ENE,61,1.0,4.0,55,0.00,,,0.00,Wunderground v.1.15,2013-03-22 07:55:00,
2013-03-22 03:56:00,30.5,16.2,30.00,ENE,60,0.0,4.0,55,0.00,,,0.00,Wunderground v.1.15,2013-03-22 07:56:00,
2013-03-22 03:59:00,30.4,16.6,30.00,ENE,60,0.0,4.0,56,0.00,,,0.00,Wunderground v.1.15,2013-03-22 07:59:00,
2013-03-22 04:00:00,30.4,16.6,30.00,ENE,61,1.0,2.0,56,0.00,,,0.00,Wunderground v.1.15,2013-03-22 08:00:00,
2013-03-22 04:02:00,30.3,16.5,30.00,ENE,60,0.0,3.0,56,0.00,,,0.00,Wunderground v.1.15,2013-03-22 08:02:00,
2013-03-22 04:04:00,30.3,16.5,30.00,ENE,61,4.0,4.0,56,0.00,,,0.00,Wunderground v.1.15,2013-03-22 08:04:00,
2013-03-22 04:06:00,30.3,16.5,30.00,ENE,61,0.0,4.0,56,0.00,,,0.00,Wunderground v.1.15,2013-03-22 08:06:00,
2013-03-22 04:08:00,30.3,16.0,30.00,ENE,60,1.0,4.0,55,0.00,,,0.00,Wunderground v.1.15,2013-03-22 08:08:00,
2013-03-22 04:09:00,30.3,16.5,30.00,ENE,61,0.0,4.0,56,0.00,,,0.00,Wunderground v.1.15,2013-03-22 08:09:00,
2013-03-22 04:10:00,30.3,16.5,30.00,ENE,61,1.0,2.0,56,0.00,,,0.00,Wunderground v.1.15,2013-03-22 08:10:00,
2013-03-22 04:11:00,30.2,16.4,30.00,ENE,61,3.0,4.0,56,0.00,,,0.00,Wunderground v.1.15,2013-03-22 08:11:00,
2013-03-22 04:13:00,30.2,16.8,30.00,ENE,61,2.0,4.0,57,0.00,,,0.00,Wunderground v.1.15,2013-03-22 08:13:00,
2013-03-22 04:14:00,30.1,16.7,30.00,ENE,60,1.0,4.0,57,0.00,,,0.00,Wunderground v.1.15,2013-03-22 08:14:00,
2013-03-22 04:15:00,30.1,16.7,29.99,ENE,61,2.0,4.0,57,0.00,,,0.00,Wunderground v.1.15,2013-03-22 08:15:00,
2013-03-22 04:16:00,30.1,16.7,29.99,ENE,61,1.0,4.0,57,0.00,,,0.00,Wunderground v.1.15,2013-03-22 08:16:00,
2013-03-22 04:18:00,30.1,16.7,30.00,ENE,61,2.0,4.0,57,0.00,,,0.00,Wunderground v.1.15,2013-03-22 08:18:00,
2013-03-22 04:19:00,30.1,16.7,30.00,ENE,61,1.0,4.0,57,0.00,,,0.00,Wunderground v.1.15,2013-03-22 08:19:00,
2013-03-22 04:20:00,30.1,16.7,30.00,ENE,60,4.0,4.0,57,0.00,,,0.00,Wunderground v.1.15,2013-03-22 08:20:00,
2013-03-22 04:22:00,30.1,16.3,30.00,NE,55,1.0,7.0,56,0.00,,,0.00,Wunderground v.1.15,2013-03-22 08:22:00,
2013-03-22 04:23:00,30.1,16.3,30.00,NE,55,1.0,7.0,56,0.00,,,0.00,Wunderground v.1.15,2013-03-22 08:23:00,
2013-03-22 04:24:00,30.2,16.4,30.00,NE,55,1.0,7.0,56,0.00,,,0.00,Wunderground v.1.15,2013-03-22 08:24:00,
2013-03-22 04:26:00,30.2,16.4,30.00,NE,55,0.0,7.0,56,0.00,,,0.00,Wunderground v.1.15,2013-03-22 08:26:00,
2013-03-22 04:27:00,30.2,16.4,30.00,NE,55,0.0,7.0,56,0.00,,,0.00,Wunderground v.1.15,2013-03-22 08:27:00,
2013-03-22 04:28:00,30.2,16.4,30.00,NE,55,0.0,7.0,56,0.00,,,0.00,Wunderground v.1.15,2013-03-22 08:28:00,
2013-03-22 04:30:00,30.2,16.4,30.00,NE,55,0.0,1.0,56,0.00,,,0.00,Wunderground v.1.15,2013-03-22 08:30:00,
2013-03-22 04:31:00,30.2,16.0,30.00,NE,55,2.0,4.0,55,0.00,,,0.00,Wunderground v.1.15,2013-03-22 08:31:00,
2013-03-22 04:33:00,30.2,16.0,30.00,NE,55,0.0,4.0,55,0.00,,,0.00,Wunderground v.1.15,2013-03-22 08:33:00,
2013-03-22 04:34:00,30.2,16.0,30.00,NE,55,0.0,5.0,55,0.00,,,0.00,Wunderground v.1.15,2013-03-22 08:34:00,
2013-03-22 04:36:00,30.3,16.0,30.00,NE,55,1.0,5.0,55,0.00,,,0.00,Wunderground v.1.15,2013-03-22 08:36:00,
2013-03-22 04:37:00,30.3,16.0,30.00,NE,55,1.0,5.0,55,0.00,,,0.00,Wunderground v.1.15,2013-03-22 08:37:00,
2013-03-22 04:38:00,30.3,16.0,30.00,NE,55,1.0,5.0,55,0.00,,,0.00,Wunderground v.1.15,2013-03-22 08:38:00,
2013-03-22 04:39:00,30.3,16.0,30.00,NE,55,2.0,5.0,55,0.00,,,0.00,Wunderground v.1.15,2013-03-22 08:39:00,
2013-03-22 04:42:00,30.4,16.1,30.00,NE,55,1.0,4.0,55,0.00,,,0.00,Wunderground v.1.15,2013-03-22 08:42:00,
2013-03-22 04:43:00,30.4,16.1,30.00,NE,55,0.0,4.0,55,0.00,,,0.00,Wunderground v.1.15,2013-03-22 08:43:00,
2013-03-22 04:45:00,30.4,16.1,30.00,NE,55,2.0,4.0,55,0.00,,,0.00,Wunderground v.1.15,2013-03-22 08:45:00,
2013-03-22 04:47:00,30.4,16.1,30.00,NE,55,0.0,4.0,55,0.00,,,0.00,Wunderground v.1.15,2013-03-22 08:47:00,
2013-03-22 04:50:00,30.4,16.1,30.00,NE,55,1.0,1.0,55,0.00,,,0.00,Wunderground v.1.15,2013-03-22 08:50:00,
2013-03-22 04:52:00,30.3,16.0,30.00,NE,55,0.0,3.0,55,0.00,,,0.00,Wunderground v.1.15,2013-03-22 08:52:00,
2013-03-22 04:55:00,30.3,16.5,30.00,NE,55,0.0,3.0,56,0.00,,,0.00,Wunderground v.1.15,2013-03-22 08:55:00,
2013-03-22 04:57:00,30.3,16.5,30.00,NE,55,2.0,3.0,56,0.00,,,0.00,Wunderground v.1.15,2013-03-22 08:57:00,
2013-03-22 05:00:00,30.2,16.8,30.00,NE,55,0.0,1.0,57,0.00,,,0.00,Wunderground v.1.15,2013-03-22 09:00:00,
2013-03-22 05:01:00,30.2,16.8,30.01,NE,55,1.0,1.0,57,0.00,,,0.00,Wunderground v.1.15,2013-03-22 09:01:00,
2013-03-22 05:02:00,30.2,16.4,30.00,NE,55,0.0,1.0,56,0.00,,,0.00,Wunderground v.1.15,2013-03-22 09:02:00,
2013-03-22 05:05:00,30.1,16.3,30.00,NE,55,0.0,1.0,56,0.00,,,0.00,Wunderground v.1.15,2013-03-22 09:05:00,
2013-03-22 05:06:00,30.1,16.7,30.00,NE,55,0.0,1.0,57,0.00,,,0.00,Wunderground v.1.15,2013-03-22 09:06:00,
2013-03-22 05:07:00,30.1,16.3,30.00,NE,55,1.0,2.0,56,0.00,,,0.00,Wunderground v.1.15,2013-03-22 09:07:00,
2013-03-22 05:08:00,30.1,16.3,30.00,NE,55,1.0,2.0,56,0.00,,,0.00,Wunderground v.1.15,2013-03-22 09:08:00,
2013-03-22 05:11:00,30.1,16.3,30.00,NE,55,0.0,2.0,56,0.00,,,0.00,Wunderground v.1.15,2013-03-22 09:11:00,
2013-03-22 05:12:00,30.1,17.1,30.00,NE,55,0.0,2.0,58,0.00,,,0.00,Wunderground v.1.15,2013-03-22 09:12:00,
2013-03-22 05:13:00,30.1,17.1,30.00,NE,55,1.0,2.0,58,0.00,,,0.00,Wunderground v.1.15,2013-03-22 09:13:00,
2013-03-22 05:16:00,30.1,16.7,30.00,NE,55,0.0,3.0,57,0.00,,,0.00,Wunderground v.1.15,2013-03-22 09:16:00,
2013-03-22 05:17:00,30.1,17.1,30.00,NE,55,0.0,3.0,58,0.00,,,0.00,Wunderground v.1.15,2013-03-22 09:17:00,
2013-03-22 05:18:00,30.1,17.1,30.00,NE,55,1.0,3.0,58,0.00,,,0.00,Wunderground v.1.15,2013-03-22 09:18:00,
2013-03-22 05:21:00,30.1,16.7,30.00,NE,55,0.0,1.0,57,0.00,,,0.00,Wunderground v.1.15,2013-03-22 09:21:00,
2013-03-22 05:23:00,30.1,16.7,30.00,NE,55,0.0,1.0,57,0.00,,,0.00,Wunderground v.1.15,2013-03-22 09:23:00,
2013-03-22 05:27:00,30.1,16.7,30.00,NE,55,0.0,1.0,57,0.00,,,0.00,Wunderground v.1.15,2013-03-22 09:27:00,
2013-03-22 05:28:00,30.1,16.7,30.00,NE,55,0.0,1.0,57,0.00,,,0.00,Wunderground v.1.15,2013-03-22 09:28:00,
2013-03-22 05:29:00,30.1,17.1,30.00,NE,55,0.0,1.0,58,0.00,,,0.00,Wunderground v.1.15,2013-03-22 09:29:00,
2013-03-22 05:32:00,30.1,17.1,30.00,NE,55,0.0,0.0,58,0.00,,,0.00,Wunderground v.1.15,2013-03-22 09:32:00,
2013-03-22 05:33:00,30.1,17.1,30.00,NE,55,0.0,0.0,58,0.00,,,0.00,Wunderground v.1.15,2013-03-22 09:33:00,
2013-03-22 05:34:00,30.1,16.7,30.01,NE,55,0.0,0.0,57,0.00,,,0.00,Wunderground v.1.15,2013-03-22 09:34:00,
2013-03-22 05:37:00,30.1,18.6,30.00,NE,55,0.0,0.0,62,0.00,,,0.00,Wunderground v.1.15,2013-03-22 09:37:00,
2013-03-22 05:38:00,30.1,18.6,30.00,NE,55,0.0,0.0,62,0.00,,,0.00,Wunderground v.1.15,2013-03-22 09:38:00,
2013-03-22 05:39:00,30.1,18.6,30.01,NE,55,0.0,0.0,62,0.00,,,0.00,Wunderground v.1.15,2013-03-22 09:39:00,
2013-03-22 05:43:00,30.1,18.3,30.01,NE,55,0.0,0.0,61,0.00,,,0.00,Wunderground v.1.15,2013-03-22 09:43:00,
2013-03-22 05:45:00,30.1,19.7,30.01,NE,55,0.0,0.0,65,0.00,,,0.00,Wunderground v.1.15,2013-03-22 09:45:00,
2013-03-22 05:48:00,30.1,19.7,30.01,NE,55,0.0,0.0,65,0.00,,,0.00,Wunderground v.1.15,2013-03-22 09:48:00,
2013-03-22 05:49:00,30.0,19.7,30.01,NE,55,0.0,0.0,65,0.00,,,0.00,Wunderground v.1.15,2013-03-22 09:49:00,
2013-03-22 05:50:00,30.0,19.7,30.01,NE,55,0.0,0.0,65,0.00,,,0.00,Wunderground v.1.15,2013-03-22 09:50:00,
2013-03-22 05:53:00,30.0,19.7,30.01,NE,55,0.0,0.0,65,0.00,,,0.00,Wunderground v.1.15,2013-03-22 09:53:00,
2013-03-22 05:54:00,29.9,19.9,30.01,NE,55,0.0,0.0,66,0.00,,,0.00,Wunderground v.1.15,2013-03-22 09:54:00,
2013-03-22 05:56:00,29.9,19.9,30.01,NE,55,0.0,0.0,66,0.00,,,0.00,Wunderground v.1.15,2013-03-22 09:56:00,
2013-03-22 05:58:00,29.9,20.3,30.01,NE,55,0.0,1.0,67,0.00,,,0.00,Wunderground v.1.15,2013-03-22 09:58:00,
2013-03-22 05:59:00,29.9,19.9,30.01,NE,55,0.0,1.0,66,0.00,,,0.00,Wunderground v.1.15,2013-03-22 09:59:00,
2013-03-22 06:01:00,29.8,19.8,30.01,NE,55,0.0,0.0,66,0.00,,,0.00,Wunderground v.1.15,2013-03-22 10:01:00,
2013-03-22 06:03:00,29.8,20.2,30.01,NE,55,0.0,0.0,67,0.00,,,0.00,Wunderground v.1.15,2013-03-22 10:03:00,
2013-03-22 06:04:00,29.8,20.2,30.01,NE,55,0.0,0.0,67,0.00,,,0.00,Wunderground v.1.15,2013-03-22 10:04:00,
2013-03-22 06:05:00,29.8,20.2,30.01,NE,55,1.0,1.0,67,0.00,,,0.00,Wunderground v.1.15,2013-03-22 10:05:00,
2013-03-22 06:07:00,29.8,20.2,30.01,NE,55,0.0,1.0,67,0.00,,,0.00,Wunderground v.1.15,2013-03-22 10:07:00,
2013-03-22 06:09:00,29.7,20.1,30.01,NE,55,0.0,1.0,67,0.00,,,0.00,Wunderground v.1.15,2013-03-22 10:09:00,
2013-03-22 06:10:00,29.7,19.7,30.01,NE,55,0.0,0.0,66,0.00,,,0.00,Wunderground v.1.15,2013-03-22 10:10:00,
2013-03-22 06:12:00,29.7,20.1,30.01,NE,55,0.0,0.0,67,0.00,,,0.00,Wunderground v.1.15,2013-03-22 10:12:00,
2013-03-22 06:14:00,29.6,19.6,30.01,NE,55,0.0,1.0,66,0.00,,,0.00,Wunderground v.1.15,2013-03-22 10:14:00,
2013-03-22 06:15:00,29.6,19.6,30.01,NE,55,0.0,1.0,66,0.00,,,0.00,Wunderground v.1.15,2013-03-22 10:15:00,
2013-03-22 06:17:00,29.6,19.6,30.01,NE,55,0.0,1.0,66,0.00,,,0.00,Wunderground v.1.15,2013-03-22 10:17:00,
2013-03-22 06:19:00,29.6,19.6,30.01,NE,55,0.0,2.0,66,0.00,,,0.00,Wunderground v.1.15,2013-03-22 10:19:00,
2013-03-22 06:20:00,29.6,20.0,30.01,NE,55,0.0,0.0,67,0.00,,,0.00,Wunderground v.1.15,2013-03-22 10:20:00,
2013-03-22 06:22:00,29.6,20.0,30.01,NE,55,2.0,2.0,67,0.00,,,0.00,Wunderground v.1.15,2013-03-22 10:22:00,
2013-03-22 06:25:00,29.5,20.2,30.01,NE,55,2.0,2.0,68,0.00,,,0.00,Wunderground v.1.15,2013-03-22 10:25:00,
2013-03-22 06:27:00,29.5,20.2,30.01,NE,55,0.0,2.0,68,0.00,,,0.00,Wunderground v.1.15,2013-03-22 10:27:00,
2013-03-22 06:30:00,29.5,20.2,30.01,NE,55,0.0,1.0,68,0.00,,,0.00,Wunderground v.1.15,2013-03-22 10:30:00,
2013-03-22 06:31:00,29.5,20.2,30.01,NE,55,0.0,1.0,68,0.00,,,0.00,Wunderground v.1.15,2013-03-22 10:31:00,
2013-03-22 06:33:00,29.5,20.2,30.01,NE,55,0.0,1.0,68,0.00,,,0.00,Wunderground v.1.15,2013-03-22 10:33:00,
2013-03-22 06:35:00,29.5,20.2,30.02,NE,55,0.0,2.0,68,0.00,,,0.00,Wunderground v.1.15,2013-03-22 10:35:00,
2013-03-22 06:36:00,29.5,20.2,30.02,NE,55,0.0,2.0,68,0.00,,,0.00,Wunderground v.1.15,2013-03-22 10:36:00,
2013-03-22 06:38:00,29.5,20.2,30.02,NE,55,0.0,2.0,68,0.00,,,0.00,Wunderground v.1.15,2013-03-22 10:38:00,
2013-03-22 06:40:00,29.5,20.6,30.02,NE,55,0.0,0.0,69,0.00,,,0.00,Wunderground v.1.15,2013-03-22 10:40:00,
2013-03-22 06:41:00,29.5,20.6,30.02,NE,55,0.0,0.0,69,0.00,,,0.00,Wunderground v.1.15,2013-03-22 10:41:00,
2013-03-22 06:42:00,29.5,20.6,30.02,NE,55,0.0,1.0,69,0.00,,,0.00,Wunderground v.1.15,2013-03-22 10:42:00,
2013-03-22 06:43:00,29.5,20.6,30.02,NE,55,0.0,1.0,69,0.00,,,0.00,Wunderground v.1.15,2013-03-22 10:43:00,
2013-03-22 06:45:00,29.6,20.7,30.02,NE,55,0.0,1.0,69,0.00,,,0.00,Wunderground v.1.15,2013-03-22 10:45:00,
2013-03-22 06:46:00,29.6,20.3,30.02,NE,55,0.0,1.0,68,0.00,,,0.00,Wunderground v.1.15,2013-03-22 10:46:00,
2013-03-22 06:47:00,29.6,20.7,30.02,NE,55,0.0,1.0,69,0.00,,,0.00,Wunderground v.1.15,2013-03-22 10:47:00,
2013-03-22 06:48:00,29.6,20.3,30.02,NE,55,0.0,1.0,68,0.00,,,0.00,Wunderground v.1.15,2013-03-22 10:48:00,
2013-03-22 06:51:00,29.6,20.3,30.02,NE,55,0.0,0.0,68,0.00,,,0.00,Wunderground v.1.15,2013-03-22 10:51:00,
2013-03-22 06:52:00,29.6,20.3,30.02,NE,55,0.0,0.0,68,0.00,,,0.00,Wunderground v.1.15,2013-03-22 10:52:00,
2013-03-22 06:53:00,29.6,20.7,30.02,NE,55,0.0,0.0,69,0.00,,,0.00,Wunderground v.1.15,2013-03-22 10:53:00,
2013-03-22 06:57:00,29.7,21.1,30.02,NE,55,0.0,0.0,70,0.00,,,0.00,Wunderground v.1.15,2013-03-22 10:57:00,
2013-03-22 06:58:00,29.6,21.0,30.02,NE,55,0.0,0.0,70,0.00,,,0.00,Wunderground v.1.15,2013-03-22 10:58:00,
2013-03-22 07:02:00,29.6,20.7,30.02,NE,55,0.0,1.0,69,0.00,,,0.00,Wunderground v.1.15,2013-03-22 11:02:00,
2013-03-22 07:03:00,29.6,20.7,30.02,NE,55,0.0,1.0,69,0.00,,,0.00,Wunderground v.1.15,2013-03-22 11:03:00,
2013-03-22 07:04:00,29.6,20.7,30.02,NE,55,0.0,1.0,69,0.00,,,0.00,Wunderground v.1.15,2013-03-22 11:04:00,
2013-03-22 07:07:00,29.6,20.7,30.02,NE,55,0.0,1.0,69,0.00,,,0.00,Wunderground v.1.15,2013-03-22 11:07:00,
2013-03-22 07:09:00,29.6,21.0,30.02,NE,55,0.0,1.0,70,0.00,,,0.00,Wunderground v.1.15,2013-03-22 11:09:00,
2013-03-22 07:12:00,29.6,21.0,30.02,NE,55,0.0,1.0,70,0.00,,,0.00,Wunderground v.1.15,2013-03-22 11:12:00,
2013-03-22 07:13:00,29.6,21.0,30.02,NE,55,0.0,1.0,70,0.00,,,0.00,Wunderground v.1.15,2013-03-22 11:13:00,
2013-03-22 07:14:00,29.5,20.6,30.02,NE,55,0.0,1.0,69,0.00,,,0.00,Wunderground v.1.15,2013-03-22 11:14:00,
2013-03-22 07:18:00,29.5,20.9,30.02,NE,55,1.0,1.0,70,0.00,,,0.00,Wunderground v.1.15,2013-03-22 11:18:00,
2013-03-22 07:19:00,29.5,20.9,30.02,NE,55,0.0,1.0,70,0.00,,,0.00,Wunderground v.1.15,2013-03-22 11:19:00,
2013-03-22 07:23:00,29.5,20.9,30.02,NE,55,1.0,2.0,70,0.00,,,0.00,Wunderground v.1.15,2013-03-22 11:23:00,
2013-03-22 07:24:00,29.6,21.0,30.01,NE,55,0.0,2.0,70,0.00,,,0.00,Wunderground v.1.15,2013-03-22 11:24:00,
2013-03-22 07:25:00,29.5,20.9,30.01,NE,55,1.0,2.0,70,0.00,,,0.00,Wunderground v.1.15,2013-03-22 11:25:00,
2013-03-22 07:28:00,29.5,20.9,30.01,NE,55,0.0,2.0,70,0.00,,,0.00,Wunderground v.1.15,2013-03-22 11:28:00,
2013-03-22 07:29:00,29.4,21.2,30.01,NE,55,2.0,2.0,71,0.00,,,0.00,Wunderground v.1.15,2013-03-22 11:29:00,
2013-03-22 07:30:00,29.5,20.9,30.02,NE,55,0.0,0.0,70,0.00,,,0.00,Wunderground v.1.15,2013-03-22 11:30:00,
2013-03-22 07:33:00,29.5,20.9,30.02,NE,55,0.0,2.0,70,0.00,,,0.00,Wunderground v.1.15,2013-03-22 11:33:00,
2013-03-22 07:34:00,29.5,21.3,30.02,NE,55,0.0,2.0,71,0.00,,,0.00,Wunderground v.1.15,2013-03-22 11:34:00,
2013-03-22 07:35:00,29.5,21.3,30.02,NE,55,0.0,2.0,71,0.00,,,0.00,Wunderground v.1.15,2013-03-22 11:35:00,
2013-03-22 07:38:00,29.5,21.6,30.02,NE,55,0.0,2.0,72,0.00,,,0.00,Wunderground v.1.15,2013-03-22 11:38:00,
2013-03-22 07:40:00,29.6,21.7,30.02,NE,55,0.0,0.0,72,0.00,,,0.00,Wunderground v.1.15,2013-03-22 11:40:00,
2013-03-22 07:43:00,29.6,21.3,30.02,NE,55,1.0,3.0,71,0.00,,,0.00,Wunderground v.1.15,2013-03-22 11:43:00,
2013-03-22 07:45:00,29.6,21.0,30.02,NE,55,0.0,3.0,70,0.00,,,0.00,Wunderground v.1.15,2013-03-22 11:45:00,
2013-03-22 07:46:00,29.6,21.3,30.02,NE,55,0.0,3.0,71,0.00,,,0.00,Wunderground v.1.15,2013-03-22 11:46:00,
2013-03-22 07:48:00,29.7,21.1,30.02,NE,55,0.0,3.0,70,0.00,,,0.00,Wunderground v.1.15,2013-03-22 11:48:00,
2013-03-22 07:50:00,29.7,21.1,30.02,NE,55,0.0,0.0,70,0.00,,,0.00,Wunderground v.1.15,2013-03-22 11:50:00,
2013-03-22 07:51:00,29.7,21.1,30.02,NE,55,0.0,0.0,70,0.00,,,0.00,Wunderground v.1.15,2013-03-22 11:51:00,
2013-03-22 07:53:00,29.8,21.2,30.02,NE,55,0.0,1.0,70,0.00,,,0.00,Wunderground v.1.15,2013-03-22 11:53:00,
2013-03-22 07:55:00,29.8,20.9,30.02,NE,55,2.0,3.0,69,0.00,,,0.00,Wunderground v.1.15,2013-03-22 11:55:00,
2013-03-22 07:57:00,29.9,21.0,30.02,NE,55,0.0,3.0,69,0.00,,,0.00,Wunderground v.1.15,2013-03-22 11:57:00,
2013-03-22 07:58:00,30.0,21.1,30.03,NE,55,0.0,3.0,69,0.00,,,0.00,Wunderground v.1.15,2013-03-22 11:58:00,
2013-03-22 08:00:00,30.0,21.1,30.02,NE,55,0.0,0.0,69,0.00,,,0.00,Wunderground v.1.15,2013-03-22 12:00:00,
2013-03-22 08:01:00,30.0,21.1,30.02,NE,55,0.0,0.0,69,0.00,,,0.00,Wunderground v.1.15,2013-03-22 12:01:00,
2013-03-22 08:02:00,30.0,20.7,30.02,NE,55,0.0,0.0,68,0.00,,,0.00,Wunderground v.1.15,2013-03-22 12:02:00,
2013-03-22 08:04:00,30.1,21.2,30.02,NE,55,0.0,0.0,69,0.00,,,0.00,Wunderground v.1.15,2013-03-22 12:04:00,
2013-03-22 08:06:00,30.1,21.5,30.03,NE,55,0.0,1.0,70,0.00,,,0.00,Wunderground v.1.15,2013-03-22 12:06:00,
2013-03-22 08:07:00,30.1,21.2,30.03,NE,55,0.0,1.0,69,0.00,,,0.00,Wunderground v.1.15,2013-03-22 12:07:00,
2013-03-22 08:09:00,30.2,21.2,30.03,NE,55,0.0,1.0,69,0.00,,,0.00,Wunderground v.1.15,2013-03-22 12:09:00,
2013-03-22 08:11:00,30.2,20.9,30.03,NE,55,0.0,0.0,68,0.00,,,0.00,Wunderground v.1.15,2013-03-22 12:11:00,
2013-03-22 08:12:00,30.3,21.3,30.03,NE,55,0.0,1.0,69,0.00,,,0.00,Wunderground v.1.15,2013-03-22 12:12:00,
2013-03-22 08:14:00,30.3,21.3,30.03,NE,55,0.0,1.0,69,0.00,,,0.00,Wunderground v.1.15,2013-03-22 12:14:00,
2013-03-22 08:17:00,30.4,21.1,30.04,NE,55,0.0,1.0,68,0.00,,,0.00,Wunderground v.1.15,2013-03-22 12:17:00,
2013-03-22 08:19:00,30.4,21.1,30.04,NE,55,0.0,1.0,68,0.00,,,0.00,Wunderground v.1.15,2013-03-22 12:19:00,
2013-03-22 08:22:00,30.6,22.3,30.04,NE,55,0.0,1.0,71,0.00,,,0.00,Wunderground v.1.15,2013-03-22 12:22:00,
2013-03-22 08:23:00,30.6,22.3,30.04,NE,55,1.0,1.0,71,0.00,,,0.00,Wunderground v.1.15,2013-03-22 12:23:00,
2013-03-22 08:25:00,30.6,22.3,30.04,NE,55,0.0,1.0,71,0.00,,,0.00,Wunderground v.1.15,2013-03-22 12:25:00,
2013-03-22 08:27:00,30.6,22.3,30.04,NE,55,0.0,1.0,71,0.00,,,0.00,Wunderground v.1.15,2013-03-22 12:27:00,
2013-03-22 08:28:00,30.7,22.4,30.04,NE,55,0.0,1.0,71,0.00,,,0.00,Wunderground v.1.15,2013-03-22 12:28:00,
2013-03-22 08:30:00,30.7,22.4,30.04,NE,55,0.0,0.0,71,0.00,,,0.00,Wunderground v.1.15,2013-03-22 12:30:00,
2013-03-22 08:32:00,30.7,22.4,30.04,NE,55,1.0,1.0,71,0.00,,,0.00,Wunderground v.1.15,2013-03-22 12:32:00,
2013-03-22 08:33:00,30.7,22.4,30.04,NE,55,1.0,1.0,71,0.00,,,0.00,Wunderground v.1.15,2013-03-22 12:33:00,
2013-03-22 08:35:00,30.7,22.4,30.04,NE,55,1.0,1.0,71,0.00,,,0.00,Wunderground v.1.15,2013-03-22 12:35:00,
2013-03-22 08:37:00,30.7,22.4,30.05,NE,55,0.0,1.0,71,0.00,,,0.00,Wunderground v.1.15,2013-03-22 12:37:00,
2013-03-22 08:38:00,30.8,22.5,30.04,NE,55,0.0,1.0,71,0.00,,,0.00,Wunderground v.1.15,2013-03-22 12:38:00,
2013-03-22 08:39:00,30.8,22.5,30.04,NE,55,1.0,1.0,71,0.00,,,0.00,Wunderground v.1.15,2013-03-22 12:39:00,
2013-03-22 08:40:00,30.8,22.5,30.04,NE,55,0.0,0.0,71,0.00,,,0.00,Wunderground v.1.15,2013-03-22 12:40:00,
2013-03-22 08:42:00,30.8,22.5,30.05,NE,55,0.0,0.0,71,0.00,,,0.00,Wunderground v.1.15,2013-03-22 12:42:00,
2013-03-22 08:43:00,30.8,22.5,30.05,NE,55,0.0,0.0,71,0.00,,,0.00,Wunderground v.1.15,2013-03-22 12:43:00,
2013-03-22 08:44:00,30.8,22.2,30.04,NE,55,0.0,0.0,70,0.00,,,0.00,Wunderground v.1.15,2013-03-22 12:44:00,
2013-03-22 08:45:00,30.9,22.3,30.04,NE,55,0.0,0.0,70,0.00,,,0.00,Wunderground v.1.15,2013-03-22 12:45:00,
2013-03-22 08:48:00,30.9,21.9,30.05,NE,55,0.0,1.0,69,0.00,,,0.00,Wunderground v.1.15,2013-03-22 12:48:00,
2013-03-22 08:49:00,30.9,21.9,30.05,NE,55,0.0,1.0,69,0.00,,,0.00,Wunderground v.1.15,2013-03-22 12:49:00,
2013-03-22 08:50:00,30.9,22.3,30.05,NE,55,0.0,0.0,70,0.00,,,0.00,Wunderground v.1.15,2013-03-22 12:50:00,
2013-03-22 08:53:00,31.0,22.0,30.05,NE,55,0.0,1.0,69,0.00,,,0.00,Wunderground v.1.15,2013-03-22 12:53:00,
2013-03-22 08:54:00,31.0,22.0,30.05,NE,55,0.0,1.0,69,0.00,,,0.00,Wunderground v.1.15,2013-03-22 12:54:00,
2013-03-22 08:55:00,31.0,22.0,30.05,NE,55,1.0,1.0,69,0.00,,,0.00,Wunderground v.1.15,2013-03-22 12:55:00,
2013-03-22 08:58:00,31.0,21.7,30.05,NE,55,0.0,1.0,68,0.00,,,0.00,Wunderground v.1.15,2013-03-22 12:58:00,
2013-03-22 08:59:00,31.0,21.7,30.05,NE,55,0.0,1.0,68,0.00,,,0.00,Wunderground v.1.15,2013-03-22 12:59:00,
2013-03-22 09:00:00,31.0,21.7,30.05,NE,55,0.0,1.0,68,0.00,,,0.00,Wunderground v.1.15,2013-03-22 13:00:00,
2013-03-22 09:04:00,31.1,22.1,30.05,East,85,0.0,1.0,69,0.00,,,0.00,Wunderground v.1.15,2013-03-22 13:04:00,
2013-03-22 09:05:00,31.2,21.9,30.05,East,85,0.0,1.0,68,0.00,,,0.00,Wunderground v.1.15,2013-03-22 13:05:00,
2013-03-22 09:06:00,31.2,22.2,30.05,East,84,0.0,1.0,69,0.00,,,0.00,Wunderground v.1.15,2013-03-22 13:06:00,
2013-03-22 09:09:00,31.2,22.2,30.05,East,85,0.0,1.0,69,0.00,,,0.00,Wunderground v.1.15,2013-03-22 13:09:00,
2013-03-22 09:10:00,31.3,22.3,30.05,East,85,0.0,0.0,69,0.00,,,0.00,Wunderground v.1.15,2013-03-22 13:10:00,
2013-03-22 09:12:00,31.4,22.7,30.05,East,85,0.0,1.0,70,0.00,,,0.00,Wunderground v.1.15,2013-03-22 13:12:00,
2013-03-22 09:14:00,31.4,22.1,30.05,East,85,0.0,1.0,68,0.00,,,0.00,Wunderground v.1.15,2013-03-22 13:14:00,
2013-03-22 09:15:00,31.5,22.1,30.05,East,84,0.0,1.0,68,0.00,,,0.00,Wunderground v.1.15,2013-03-22 13:15:00,
2013-03-22 09:16:00,31.5,22.1,30.05,East,85,0.0,1.0,68,0.00,,,0.00,Wunderground v.1.15,2013-03-22 13:16:00,
2013-03-22 09:17:00,31.5,22.1,30.06,East,85,0.0,1.0,68,0.00,,,0.00,Wunderground v.1.15,2013-03-22 13:17:00,
2013-03-22 09:19:00,31.6,22.6,30.06,East,85,0.0,1.0,69,0.00,,,0.00,Wunderground v.1.15,2013-03-22 13:19:00,
2013-03-22 09:21:00,31.6,22.2,30.06,East,84,0.0,1.0,68,0.00,,,0.00,Wunderground v.1.15,2013-03-22 13:21:00,
2013-03-22 09:22:00,31.6,22.2,30.06,East,85,0.0,1.0,68,0.00,,,0.00,Wunderground v.1.15,2013-03-22 13:22:00,
2013-03-22 09:24:00,31.7,22.0,30.05,East,85,0.0,2.0,67,0.00,,,0.00,Wunderground v.1.15,2013-03-22 13:24:00,
2013-03-22 09:26:00,31.7,22.0,30.05,East,85,0.0,2.0,67,0.00,,,0.00,Wunderground v.1.15,2013-03-22 13:26:00,
2013-03-22 09:27:00,31.8,22.4,30.05,East,84,0.0,2.0,68,0.00,,,0.00,Wunderground v.1.15,2013-03-22 13:27:00,
2013-03-22 09:30:00,31.8,22.4,30.06,East,85,0.0,0.0,68,0.00,,,0.00,Wunderground v.1.15,2013-03-22 13:30:00,
2013-03-22 09:31:00,31.9,22.2,30.06,East,85,0.0,0.0,67,0.00,,,0.00,Wunderground v.1.15,2013-03-22 13:31:00,
2013-03-22 09:32:00,31.9,22.2,30.06,East,84,0.0,0.0,67,0.00,,,0.00,Wunderground v.1.15,2013-03-22 13:32:00,
2013-03-22 09:35:00,31.9,21.8,30.06,East,85,0.0,0.0,66,0.00,,,0.00,Wunderground v.1.15,2013-03-22 13:35:00,
2013-03-22 09:36:00,32.0,21.6,30.06,East,85,0.0,0.0,65,0.00,,,0.00,Wunderground v.1.15,2013-03-22 13:36:00,
2013-03-22 09:37:00,32.0,21.6,30.06,East,84,0.0,0.0,65,0.00,,,0.00,Wunderground v.1.15,2013-03-22 13:37:00,
2013-03-22 09:38:00,32.0,21.9,30.06,East,84,0.0,0.0,66,0.00,,,0.00,Wunderground v.1.15,2013-03-22 13:38:00,
2013-03-22 09:41:00,32.1,22.0,30.06,East,84,0.0,0.0,66,0.00,,,0.00,Wunderground v.1.15,2013-03-22 13:41:00,
2013-03-22 09:43:00,32.1,22.4,30.06,East,85,0.0,0.0,67,0.00,,,0.00,Wunderground v.1.15,2013-03-22 13:43:00,
2013-03-22 09:46:00,32.2,22.1,30.07,East,85,0.0,0.0,66,0.00,,,0.00,Wunderground v.1.15,2013-03-22 13:46:00,
2013-03-22 09:47:00,32.3,22.2,30.07,East,85,0.0,0.0,66,0.00,,,0.00,Wunderground v.1.15,2013-03-22 13:47:00,
2013-03-22 09:48:00,32.3,22.2,30.06,East,85,0.0,0.0,66,0.00,,,0.00,Wunderground v.1.15,2013-03-22 13:48:00,
2013-03-22 09:52:00,32.4,21.9,30.07,East,85,0.0,0.0,65,0.00,,,0.00,Wunderground v.1.15,2013-03-22 13:52:00,
2013-03-22 09:53:00,32.4,21.9,30.06,East,85,0.0,0.0,65,0.00,,,0.00,Wunderground v.1.15,2013-03-22 13:53:00,
2013-03-22 09:57:00,32.6,22.8,30.07,East,84,0.0,1.0,67,0.00,,,0.00,Wunderground v.1.15,2013-03-22 13:57:00,
2013-03-22 09:58:00,32.6,22.8,30.07,East,85,0.0,1.0,67,0.00,,,0.00,Wunderground v.1.15,2013-03-22 13:58:00,
2013-03-22 09:59:00,32.7,22.9,30.06,East,85,0.0,1.0,67,0.00,,,0.00,Wunderground v.1.15,2013-03-22 13:59:00,
2013-03-22 10:02:00,32.8,22.7,30.07,East,85,0.0,1.0,66,0.00,,,0.00,Wunderground v.1.15,2013-03-22 14:02:00,
2013-03-22 10:03:00,32.8,22.7,30.06,East,85,0.0,1.0,66,0.00,,,0.00,Wunderground v.1.15,2013-03-22 14:03:00,
2013-03-22 10:05:00,32.9,22.4,30.06,East,84,0.0,1.0,65,0.00,,,0.00,Wunderground v.1.15,2013-03-22 14:05:00,
2013-03-22 10:07:00,32.9,22.4,30.06,East,85,0.0,1.0,65,0.00,,,0.00,Wunderground v.1.15,2013-03-22 14:07:00,
2013-03-22 10:08:00,32.9,22.4,30.06,East,84,0.0,1.0,65,0.00,,,0.00,Wunderground v.1.15,2013-03-22 14:08:00,
2013-03-22 10:09:00,32.9,22.4,30.06,East,85,0.0,1.0,65,0.00,,,0.00,Wunderground v.1.15,2013-03-22 14:09:00,
2013-03-22 10:10:00,32.9,22.4,30.06,East,84,0.0,0.0,65,0.00,,,0.00,Wunderground v.1.15,2013-03-22 14:10:00,
2013-03-22 10:13:00,33.0,22.5,30.06,East,85,0.0,0.0,65,0.00,,,0.00,Wunderground v.1.15,2013-03-22 14:13:00,
2013-03-22 10:14:00,33.0,22.9,30.06,East,85,0.0,0.0,66,0.00,,,0.00,Wunderground v.1.15,2013-03-22 14:14:00,
2013-03-22 10:15:00,33.0,22.9,30.06,East,85,0.0,0.0,66,0.00,,,0.00,Wunderground v.1.15,2013-03-22 14:15:00,
2013-03-22 10:18:00,33.1,23.0,30.06,East,85,0.0,0.0,66,0.00,,,0.00,Wunderground v.1.15,2013-03-22 14:18:00,
2013-03-22 10:20:00,33.2,22.7,30.06,East,84,0.0,0.0,65,0.00,,,0.00,Wunderground v.1.15,2013-03-22 14:20:00,
2013-03-22 10:23:00,33.3,22.4,30.06,East,85,1.0,1.0,64,0.00,,,0.00,Wunderground v.1.15,2013-03-22 14:23:00,
2013-03-22 10:24:00,33.3,22.4,30.06,East,85,1.0,1.0,64,0.00,,,0.00,Wunderground v.1.15,2013-03-22 14:24:00,
2013-03-22 10:25:00,33.4,22.5,30.06,East,85,0.0,1.0,64,0.00,,,0.00,Wunderground v.1.15,2013-03-22 14:25:00,
2013-03-22 10:27:00,33.5,22.6,30.06,East,85,0.0,1.0,64,0.00,,,0.00,Wunderground v.1.15,2013-03-22 14:27:00,
2013-03-22 10:29:00,33.5,22.2,30.06,East,84,1.0,2.0,63,0.00,,,0.00,Wunderground v.1.15,2013-03-22 14:29:00,
2013-03-22 10:30:00,33.5,22.2,30.06,East,85,0.0,0.0,63,0.00,,,0.00,Wunderground v.1.15,2013-03-22 14:30:00,
2013-03-22 10:33:00,33.6,22.3,30.06,East,84,0.0,0.0,63,0.00,,,0.00,Wunderground v.1.15,2013-03-22 14:33:00,
2013-03-22 10:34:00,33.7,22.8,30.06,East,85,0.0,0.0,64,0.00,,,0.00,Wunderground v.1.15,2013-03-22 14:34:00,
2013-03-22 10:35:00,33.7,23.2,30.06,East,85,0.0,0.0,65,0.00,,,0.00,Wunderground v.1.15,2013-03-22 14:35:00,
2013-03-22 10:38:00,33.8,22.5,30.06,East,84,0.0,1.0,63,0.00,,,0.00,Wunderground v.1.15,2013-03-22 14:38:00,
2013-03-22 10:39:00,33.9,23.0,30.06,East,85,1.0,1.0,64,0.00,,,0.00,Wunderground v.1.15,2013-03-22 14:39:00,
2013-03-22 10:40:00,33.9,22.6,30.06,East,85,0.0,0.0,63,0.00,,,0.00,Wunderground v.1.15,2013-03-22 14:40:00,
2013-03-22 10:43:00,34.0,22.7,30.06,East,84,0.0,0.0,63,0.00,,,0.00,Wunderground v.1.15,2013-03-22 14:43:00,
2013-03-22 10:44:00,34.1,22.8,30.06,East,85,0.0,2.0,63,0.00,,,0.00,Wunderground v.1.15,2013-03-22 14:44:00,
2013-03-22 10:45:00,34.1,22.8,30.06,East,84,1.0,2.0,63,0.00,,,0.00,Wunderground v.1.15,2013-03-22 14:45:00,
2013-03-22 10:46:00,34.1,22.8,30.06,East,85,1.0,2.0,63,0.00,,,0.00,Wunderground v.1.15,2013-03-22 14:46:00,
2013-03-22 10:48:00,34.2,23.3,30.06,East,85,0.0,2.0,64,0.00,,,0.00,Wunderground v.1.15,2013-03-22 14:48:00,
2013-03-22 10:49:00,34.4,23.5,30.06,East,84,0.0,2.0,64,0.00,,,0.00,Wunderground v.1.15,2013-03-22 14:49:00,
2013-03-22 10:50:00,34.4,23.5,30.06,East,85,0.0,0.0,64,0.00,,,0.00,Wunderground v.1.15,2013-03-22 14:50:00,
2013-03-22 10:51:00,34.4,23.5,30.06,East,84,0.0,0.0,64,0.00,,,0.00,Wunderground v.1.15,2013-03-22 14:51:00,
2013-03-22 10:53:00,34.4,23.5,30.06,East,85,0.0,2.0,64,0.00,,,0.00,Wunderground v.1.15,2013-03-22 14:53:00,
2013-03-22 10:55:00,34.4,23.8,30.06,East,85,2.0,2.0,65,0.00,,,0.00,Wunderground v.1.15,2013-03-22 14:55:00,
2013-03-22 10:56:00,34.4,23.5,30.06,East,85,1.0,2.0,64,0.00,,,0.00,Wunderground v.1.15,2013-03-22 14:56:00,
2013-03-22 10:58:00,34.6,23.7,30.06,East,85,0.0,2.0,64,0.00,,,0.00,Wunderground v.1.15,2013-03-22 14:58:00,
2013-03-22 11:00:00,34.7,23.4,30.06,East,85,0.0,1.0,63,0.00,,,0.00,Wunderground v.1.15,2013-03-22 15:00:00,
2013-03-22 11:03:00,34.8,23.5,30.06,East,84,2.0,2.0,63,0.00,,,0.00,Wunderground v.1.15,2013-03-22 15:03:00,
2013-03-22 11:05:00,34.9,23.9,30.05,East,85,0.0,3.0,64,0.00,,,0.00,Wunderground v.1.15,2013-03-22 15:05:00,
2013-03-22 11:08:00,35.0,24.0,30.05,East,84,1.0,3.0,64,0.00,,,0.00,Wunderground v.1.15,2013-03-22 15:08:00,
2013-03-22 11:09:00,35.0,24.0,30.05,East,85,0.0,3.0,64,0.00,,,0.00,Wunderground v.1.15,2013-03-22 15:09:00,
2013-03-22 11:10:00,35.1,24.1,30.05,East,85,0.0,0.0,64,0.00,,,0.00,Wunderground v.1.15,2013-03-22 15:10:00,
2013-03-22 11:11:00,35.1,24.1,30.05,East,85,2.0,3.0,64,0.00,,,0.00,Wunderground v.1.15,2013-03-22 15:11:00,
2013-03-22 11:13:00,35.2,23.9,30.05,East,85,0.0,3.0,63,0.00,,,0.00,Wunderground v.1.15,2013-03-22 15:13:00,
2013-03-22 11:15:00,35.2,24.2,30.04,East,85,1.0,3.0,64,0.00,,,0.00,Wunderground v.1.15,2013-03-22 15:15:00,
2013-03-22 11:17:00,35.3,24.0,30.05,East,85,0.0,3.0,63,0.00,,,0.00,Wunderground v.1.15,2013-03-22 15:17:00,
2013-03-22 11:18:00,35.4,23.7,30.05,East,85,0.0,3.0,62,0.00,,,0.00,Wunderground v.1.15,2013-03-22 15:18:00,
2013-03-22 11:20:00,35.5,24.5,30.05,East,85,0.0,1.0,64,0.00,,,0.00,Wunderground v.1.15,2013-03-22 15:20:00,
2013-03-22 11:22:00,35.5,23.8,30.06,East,84,0.0,1.0,62,0.00,,,0.00,Wunderground v.1.15,2013-03-22 15:22:00,
2013-03-22 11:24:00,35.6,24.2,30.06,East,84,0.0,1.0,63,0.00,,,0.00,Wunderground v.1.15,2013-03-22 15:24:00,
2013-03-22 11:26:00,35.7,24.3,30.06,East,85,0.0,1.0,63,0.00,,,0.00,Wunderground v.1.15,2013-03-22 15:26:00,
2013-03-22 11:27:00,35.7,23.9,30.06,East,84,0.0,1.0,62,0.00,,,0.00,Wunderground v.1.15,2013-03-22 15:27:00,
2013-03-22 11:29:00,35.8,23.7,30.06,East,85,0.0,1.0,61,0.00,,,0.00,Wunderground v.1.15,2013-03-22 15:29:00,
2013-03-22 11:31:00,35.9,23.7,30.06,East,85,0.0,1.0,61,0.00,,,0.00,Wunderground v.1.15,2013-03-22 15:31:00,
2013-03-22 11:32:00,35.9,24.1,30.06,East,85,0.0,1.0,62,0.00,,,0.00,Wunderground v.1.15,2013-03-22 15:32:00,
2013-03-22 11:34:00,35.9,24.1,30.06,East,84,1.0,2.0,62,0.00,,,0.00,Wunderground v.1.15,2013-03-22 15:34:00,
2013-03-22 11:37:00,35.9,24.1,30.06,East,85,0.0,2.0,62,0.00,,,0.00,Wunderground v.1.15,2013-03-22 15:37:00,
2013-03-22 11:38:00,35.9,23.7,30.05,East,85,0.0,2.0,61,0.00,,,0.00,Wunderground v.1.15,2013-03-22 15:38:00,
2013-03-22 11:39:00,35.9,24.1,30.05,East,85,0.0,2.0,62,0.00,,,0.00,Wunderground v.1.15,2013-03-22 15:39:00,
2013-03-22 11:42:00,35.9,23.7,30.05,East,84,0.0,1.0,61,0.00,,,0.00,Wunderground v.1.15,2013-03-22 15:42:00,
2013-03-22 11:43:00,35.9,23.7,30.05,East,85,0.0,1.0,61,0.00,,,0.00,Wunderground v.1.15,2013-03-22 15:43:00,
2013-03-22 11:45:00,35.9,24.1,30.05,East,85,2.0,2.0,62,0.00,,,0.00,Wunderground v.1.15,2013-03-22 15:45:00,
2013-03-22 11:47:00,36.0,23.8,30.05,East,85,0.0,2.0,61,0.00,,,0.00,Wunderground v.1.15,2013-03-22 15:47:00,
2013-03-22 11:48:00,36.1,23.9,30.05,East,84,1.0,2.0,61,0.00,,,0.00,Wunderground v.1.15,2013-03-22 15:48:00,
2013-03-22 11:50:00,36.2,24.4,30.05,East,85,0.0,1.0,62,0.00,,,0.00,Wunderground v.1.15,2013-03-22 15:50:00,
2013-03-22 11:52:00,36.3,24.1,30.05,East,85,1.0,3.0,61,0.00,,,0.00,Wunderground v.1.15,2013-03-22 15:52:00,
2013-03-22 11:53:00,36.3,24.1,30.05,East,85,0.0,3.0,61,0.00,,,0.00,Wunderground v.1.15,2013-03-22 15:53:00,
2013-03-22 11:55:00,36.5,24.7,30.04,East,85,0.0,3.0,62,0.00,,,0.00,Wunderground v.1.15,2013-03-22 15:55:00,
2013-03-22 11:58:00,36.8,24.6,30.04,East,85,0.0,3.0,61,0.00,,,0.00,Wunderground v.1.15,2013-03-22 15:58:00,
2013-03-22 12:00:00,37.1,24.5,30.04,East,84,2.0,2.0,60,0.00,,,0.00,Wunderground v.1.15,2013-03-22 16:00:00,
2013-03-22 12:03:00,37.3,24.3,30.04,East,84,1.0,2.0,59,0.00,,,0.00,Wunderground v.1.15,2013-03-22 16:03:00,
2013-03-22 12:05:00,37.5,24.5,30.04,East,85,0.0,4.0,59,0.00,,,0.00,Wunderground v.1.15,2013-03-22 16:05:00,
2013-03-22 12:08:00,37.6,24.1,30.04,East,85,4.0,4.0,58,0.00,,,0.00,Wunderground v.1.15,2013-03-22 16:08:00,
2013-03-22 12:09:00,37.7,23.8,30.04,East,85,1.0,4.0,57,0.00,,,0.00,Wunderground v.1.15,2013-03-22 16:09:00,
2013-03-22 12:11:00,37.7,24.2,30.05,East,85,3.0,3.0,58,0.00,,,0.00,Wunderground v.1.15,2013-03-22 16:11:00,
2013-03-22 12:13:00,37.8,23.9,30.04,East,85,0.0,5.0,57,0.00,,,0.00,Wunderground v.1.15,2013-03-22 16:13:00,
2013-03-22 12:14:00,37.8,24.3,30.04,East,85,1.0,5.0,58,0.00,,,0.00,Wunderground v.1.15,2013-03-22 16:14:00,
2013-03-22 12:16:00,38.0,24.9,30.04,East,85,0.0,5.0,59,0.00,,,0.00,Wunderground v.1.15,2013-03-22 16:16:00,
2013-03-22 12:18:00,38.2,24.3,30.04,East,84,2.0,5.0,57,0.00,,,0.00,Wunderground v.1.15,2013-03-22 16:18:00,
2013-03-22 12:19:00,38.2,24.3,30.04,East,84,0.0,5.0,57,0.00,,,0.00,Wunderground v.1.15,2013-03-22 16:19:00,
2013-03-22 12:22:00,38.4,24.9,30.04,East,85,2.0,3.0,58,0.00,,,0.00,Wunderground v.1.15,2013-03-22 16:22:00,
2013-03-22 12:23:00,38.5,25.0,30.03,East,85,2.0,4.0,58,0.00,,,0.00,Wunderground v.1.15,2013-03-22 16:23:00,
2013-03-22 12:24:00,38.6,25.1,30.03,East,84,2.0,4.0,58,0.00,,,0.00,Wunderground v.1.15,2013-03-22 16:24:00,
2013-03-22 12:27:00,38.9,24.9,30.03,East,84,3.0,5.0,57,0.00,,,0.00,Wunderground v.1.15,2013-03-22 16:27:00,
2013-03-22 12:28:00,38.9,24.5,30.03,East,85,2.0,5.0,56,0.00,,,0.00,Wunderground v.1.15,2013-03-22 16:28:00,
2013-03-22 12:29:00,38.9,24.5,30.03,East,85,0.0,5.0,56,0.00,,,0.00,Wunderground v.1.15,2013-03-22 16:29:00,
2013-03-22 12:30:00,39.1,24.7,30.03,East,84,1.0,2.0,56,0.00,,,0.00,Wunderground v.1.15,2013-03-22 16:30:00,
2013-03-22 12:32:00,39.3,24.9,30.03,East,84,0.0,3.0,56,0.00,,,0.00,Wunderground v.1.15,2013-03-22 16:32:00,
2013-03-22 12:33:00,39.5,24.7,30.03,East,84,2.0,4.0,55,0.00,,,0.00,Wunderground v.1.15,2013-03-22 16:33:00,
2013-03-22 12:34:00,39.5,24.7,30.03,East,85,3.0,4.0,55,0.00,,,0.00,Wunderground v.1.15,2013-03-22 16:34:00,
2013-03-22 12:35:00,39.6,25.2,30.03,East,85,1.0,4.0,56,0.00,,,0.00,Wunderground v.1.15,2013-03-22 16:35:00,
2013-03-22 12:37:00,39.8,24.9,30.03,East,85,0.0,5.0,55,0.00,,,0.00,Wunderground v.1.15,2013-03-22 16:37:00,
2013-03-22 12:39:00,39.8,24.9,30.03,East,85,2.0,5.0,55,0.00,,,0.00,Wunderground v.1.15,2013-03-22 16:39:00,
2013-03-22 12:40:00,39.9,24.6,30.03,East,85,1.0,1.0,54,0.00,,,0.00,Wunderground v.1.15,2013-03-22 16:40:00,
2013-03-22 12:43:00,40.2,24.9,30.03,East,85,0.0,2.0,54,0.00,,,0.00,Wunderground v.1.15,2013-03-22 16:43:00,
2013-03-22 12:44:00,40.3,25.0,30.03,East,85,0.0,3.0,54,0.00,,,0.00,Wunderground v.1.15,2013-03-22 16:44:00,
2013-03-22 12:45:00,40.4,25.1,30.03,East,85,0.0,3.0,54,0.00,,,0.00,Wunderground v.1.15,2013-03-22 16:45:00,
2013-03-22 12:48:00,40.7,24.9,30.03,East,85,0.0,3.0,53,0.00,,,0.00,Wunderground v.1.15,2013-03-22 16:48:00,
2013-03-22 12:49:00,40.7,24.9,30.03,East,85,0.0,3.0,53,0.00,,,0.00,Wunderground v.1.15,2013-03-22 16:49:00,
2013-03-22 12:50:00,40.9,25.5,30.03,East,86,1.0,1.0,54,0.00,,,0.00,Wunderground v.1.15,2013-03-22 16:50:00,
2013-03-22 12:53:00,41.0,25.2,30.03,East,86,3.0,3.0,53,0.00,,,0.00,Wunderground v.1.15,2013-03-22 16:53:00,
2013-03-22 12:54:00,41.0,24.7,30.03,East,86,2.0,3.0,52,0.00,,,0.00,Wunderground v.1.15,2013-03-22 16:54:00,
2013-03-22 12:55:00,41.1,24.8,30.03,East,86,0.0,3.0,52,0.00,,,0.00,Wunderground v.1.15,2013-03-22 16:55:00,
2013-03-22 12:58:00,41.2,24.9,30.03,East,86,1.0,3.0,52,0.00,,,0.00,Wunderground v.1.15,2013-03-22 16:58:00,
2013-03-22 12:59:00,41.2,24.4,30.04,East,86,1.0,3.0,51,0.00,,,0.00,Wunderground v.1.15,2013-03-22 16:59:00,
2013-03-22 13:00:00,41.2,24.4,30.04,East,86,1.0,3.0,51,0.00,,,0.00,Wunderground v.1.15,2013-03-22 17:00:00,
2013-03-22 13:01:00,41.2,24.4,30.04,East,86,0.0,2.0,51,0.00,,,0.00,Wunderground v.1.15,2013-03-22 17:01:00,
2013-03-22 13:03:00,41.1,24.8,30.04,East,86,0.0,3.0,52,0.00,,,0.00,Wunderground v.1.15,2013-03-22 17:03:00,
2013-03-22 13:05:00,41.1,24.8,30.04,East,86,0.0,3.0,52,0.00,,,0.00,Wunderground v.1.15,2013-03-22 17:05:00,
2013-03-22 13:06:00,41.2,24.9,30.04,East,86,1.0,3.0,52,0.00,,,0.00,Wunderground v.1.15,2013-03-22 17:06:00,
2013-03-22 13:08:00,41.3,25.4,30.04,East,86,2.0,4.0,53,0.00,,,0.00,Wunderground v.1.15,2013-03-22 17:08:00,
2013-03-22 13:10:00,41.3,25.0,30.04,East,86,0.0,1.0,52,0.00,,,0.00,Wunderground v.1.15,2013-03-22 17:10:00,
2013-03-22 13:11:00,41.3,25.0,30.04,East,86,2.0,3.0,52,0.00,,,0.00,Wunderground v.1.15,2013-03-22 17:11:00,
2013-03-22 13:14:00,41.4,25.1,30.04,East,86,2.0,3.0,52,0.00,,,0.00,Wunderground v.1.15,2013-03-22 17:14:00,
2013-03-22 13:15:00,41.4,25.1,30.04,East,86,1.0,3.0,52,0.00,,,0.00,Wunderground v.1.15,2013-03-22 17:15:00,
2013-03-22 13:16:00,41.4,25.1,30.04,East,86,2.0,3.0,52,0.00,,,0.00,Wunderground v.1.15,2013-03-22 17:16:00,
2013-03-22 13:17:00,41.5,25.6,30.04,East,86,1.0,3.0,53,0.00,,,0.00,Wunderground v.1.15,2013-03-22 17:17:00,
2013-03-22 13:19:00,41.5,25.6,30.04,ESE,102,1.0,5.0,53,0.00,,,0.00,Wunderground v.1.15,2013-03-22 17:19:00,
2013-03-22 13:21:00,41.5,25.2,30.04,ESE,103,2.0,3.0,52,0.00,,,0.00,Wunderground v.1.15,2013-03-22 17:21:00,
2013-03-22 13:22:00,41.4,25.1,30.04,ESE,103,2.0,3.0,52,0.00,,,0.00,Wunderground v.1.15,2013-03-22 17:22:00,
2013-03-22 13:25:00,41.3,25.0,30.04,ESE,108,1.0,4.0,52,0.00,,,0.00,Wunderground v.1.15,2013-03-22 17:25:00,
2013-03-22 13:26:00,41.3,25.0,30.04,ESE,107,1.0,4.0,52,0.00,,,0.00,Wunderground v.1.15,2013-03-22 17:26:00,
2013-03-22 13:27:00,41.2,24.9,30.04,ESE,108,1.0,4.0,52,0.00,,,0.00,Wunderground v.1.15,2013-03-22 17:27:00,
2013-03-22 13:30:00,41.3,25.4,30.04,ESE,108,1.0,2.0,53,0.00,,,0.00,Wunderground v.1.15,2013-03-22 17:30:00,
2013-03-22 13:32:00,41.4,25.1,30.04,ESE,107,2.0,3.0,52,0.00,,,0.00,Wunderground v.1.15,2013-03-22 17:32:00,
2013-03-22 13:35:00,41.6,26.2,30.04,ESE,108,1.0,3.0,54,0.00,,,0.00,Wunderground v.1.15,2013-03-22 17:35:00,
2013-03-22 13:37:00,41.6,26.2,30.04,ESE,110,4.0,5.0,54,0.00,,,0.00,Wunderground v.1.15,2013-03-22 17:37:00,
2013-03-22 13:38:00,41.7,25.8,30.04,ESE,110,3.0,5.0,53,0.00,,,0.00,Wunderground v.1.15,2013-03-22 17:38:00,
2013-03-22 13:40:00,41.8,26.4,30.03,ESE,110,1.0,2.0,54,0.00,,,0.00,Wunderground v.1.15,2013-03-22 17:40:00,
2013-03-22 13:42:00,41.9,26.4,30.03,ESE,110,2.0,5.0,54,0.00,,,0.00,Wunderground v.1.15,2013-03-22 17:42:00,
2013-03-22 13:43:00,41.9,26.0,30.03,ESE,110,1.0,5.0,53,0.00,,,0.00,Wunderground v.1.15,2013-03-22 17:43:00,
2013-03-22 13:44:00,41.9,26.4,30.03,ESE,110,3.0,5.0,54,0.00,,,0.00,Wunderground v.1.15,2013-03-22 17:44:00,
2013-03-22 13:45:00,42.0,26.1,30.03,ESE,116,3.0,6.0,53,0.00,,,0.00,Wunderground v.1.15,2013-03-22 17:45:00,
2013-03-22 13:47:00,42.0,26.1,30.03,ESE,120,5.0,6.0,53,0.00,,,0.00,Wunderground v.1.15,2013-03-22 17:47:00,
2013-03-22 13:49:00,42.0,26.1,30.03,ESE,120,2.0,6.0,53,0.00,,,0.00,Wunderground v.1.15,2013-03-22 17:49:00,
2013-03-22 13:50:00,42.0,26.5,30.03,SE,127,1.0,3.0,54,0.00,,,0.00,Wunderground v.1.15,2013-03-22 17:50:00,
2013-03-22 13:52:00,42.3,26.8,30.03,SE,127,1.0,3.0,54,0.00,,,0.00,Wunderground v.1.15,2013-03-22 17:52:00,
2013-03-22 13:54:00,42.5,26.6,30.03,SE,127,1.0,3.0,53,0.00,,,0.00,Wunderground v.1.15,2013-03-22 17:54:00,
2013-03-22 13:57:00,43.1,27.6,30.02,SSE,153,7.0,7.0,54,0.00,,,0.00,Wunderground v.1.15,2013-03-22 17:57:00,
2013-03-22 13:59:00,43.3,26.8,30.02,SSE,153,0.0,7.0,52,0.00,,,0.00,Wunderground v.1.15,2013-03-22 17:59:00,
2013-03-22 14:02:00,43.5,26.1,30.02,SSE,153,3.0,6.0,50,0.00,,,0.00,Wunderground v.1.15,2013-03-22 18:02:00,
2013-03-22 14:03:00,43.5,26.1,30.02,SSE,153,2.0,6.0,50,0.00,,,0.00,Wunderground v.1.15,2013-03-22 18:03:00,
2013-03-22 14:04:00,43.5,26.6,30.02,SSE,152,4.0,6.0,51,0.00,,,0.00,Wunderground v.1.15,2013-03-22 18:04:00,
2013-03-22 14:07:00,43.6,26.2,30.02,SSE,153,2.0,6.0,50,0.00,,,0.00,Wunderground v.1.15,2013-03-22 18:07:00,
2013-03-22 14:08:00,43.6,26.2,30.02,SSE,153,1.0,6.0,50,0.00,,,0.00,Wunderground v.1.15,2013-03-22 18:08:00,
2013-03-22 14:09:00,43.6,25.7,30.03,SSE,153,0.0,6.0,49,0.00,,,0.00,Wunderground v.1.15,2013-03-22 18:09:00,
2013-03-22 14:10:00,43.6,26.2,30.03,SSE,152,2.0,2.0,50,0.00,,,0.00,Wunderground v.1.15,2013-03-22 18:10:00,
2013-03-22 14:13:00,43.6,26.2,30.02,SSE,153,2.0,3.0,50,0.00,,,0.00,Wunderground v.1.15,2013-03-22 18:13:00,
2013-03-22 14:15:00,43.6,26.2,30.02,SSE,153,2.0,3.0,50,0.00,,,0.00,Wunderground v.1.15,2013-03-22 18:15:00,
2013-03-22 14:16:00,43.7,26.3,30.02,SSE,152,0.0,3.0,50,0.00,,,0.00,Wunderground v.1.15,2013-03-22 18:16:00,
2013-03-22 14:18:00,43.6,25.7,30.02,SSE,153,1.0,4.0,49,0.00,,,0.00,Wunderground v.1.15,2013-03-22 18:18:00,
2013-03-22 14:20:00,43.7,26.3,30.02,SSE,153,2.0,4.0,50,0.00,,,0.00,Wunderground v.1.15,2013-03-22 18:20:00,
2013-03-22 14:21:00,43.7,25.3,30.02,SSE,153,2.0,4.0,48,0.00,,,0.00,Wunderground v.1.15,2013-03-22 18:21:00,
2013-03-22 14:23:00,43.9,26.0,30.02,SSE,152,2.0,4.0,49,0.00,,,0.00,Wunderground v.1.15,2013-03-22 18:23:00,
2013-03-22 14:25:00,44.0,25.0,30.03,SSE,153,2.0,4.0,47,0.00,,,0.00,Wunderground v.1.15,2013-03-22 18:25:00,
2013-03-22 14:27:00,44.1,25.1,30.02,SSE,153,2.0,4.0,47,0.00,,,0.00,Wunderground v.1.15,2013-03-22 18:27:00,
2013-03-22 14:28:00,44.0,25.5,30.02,SSE,153,0.0,4.0,48,0.00,,,0.00,Wunderground v.1.15,2013-03-22 18:28:00,
2013-03-22 14:29:00,44.1,25.6,30.02,SSE,153,2.0,4.0,48,0.00,,,0.00,Wunderground v.1.15,2013-03-22 18:29:00,
2013-03-22 14:31:00,44.1,25.6,30.02,SSE,153,2.0,4.0,48,0.00,,,0.00,Wunderground v.1.15,2013-03-22 18:31:00,
2013-03-22 14:33:00,44.1,26.1,30.02,SSE,153,3.0,4.0,49,0.00,,,0.00,Wunderground v.1.15,2013-03-22 18:33:00,
2013-03-22 14:34:00,44.2,26.2,30.02,SSE,153,0.0,5.0,49,0.00,,,0.00,Wunderground v.1.15,2013-03-22 18:34:00,
2013-03-22 14:37:00,44.2,25.2,30.02,SSE,153,3.0,5.0,47,0.00,,,0.00,Wunderground v.1.15,2013-03-22 18:37:00,
2013-03-22 14:38:00,44.2,25.2,30.02,SSE,152,0.0,5.0,47,0.00,,,0.00,Wunderground v.1.15,2013-03-22 18:38:00,
2013-03-22 14:40:00,44.2,26.2,30.01,SSE,152,4.0,5.0,49,0.00,,,0.00,Wunderground v.1.15,2013-03-22 18:40:00,
2013-03-22 14:42:00,44.2,25.7,30.01,SSE,152,1.0,4.0,48,0.00,,,0.00,Wunderground v.1.15,2013-03-22 18:42:00,
2013-03-22 14:43:00,44.2,25.7,30.01,SSE,153,1.0,4.0,48,0.00,,,0.00,Wunderground v.1.15,2013-03-22 18:43:00,
2013-03-22 14:45:00,44.3,25.8,30.01,SSE,152,1.0,4.0,48,0.00,,,0.00,Wunderground v.1.15,2013-03-22 18:45:00,
2013-03-22 14:47:00,44.3,25.8,30.01,SSE,153,1.0,4.0,48,0.00,,,0.00,Wunderground v.1.15,2013-03-22 18:47:00,
2013-03-22 14:48:00,44.4,26.4,30.01,SSE,152,1.0,4.0,49,0.00,,,0.00,Wunderground v.1.15,2013-03-22 18:48:00,
2013-03-22 14:50:00,44.5,26.5,30.01,SSE,153,0.0,2.0,49,0.00,,,0.00,Wunderground v.1.15,2013-03-22 18:50:00,
2013-03-22 14:52:00,44.6,26.6,30.01,SSE,153,0.0,3.0,49,0.00,,,0.00,Wunderground v.1.15,2013-03-22 18:52:00,
2013-03-22 14:53:00,44.6,26.6,30.00,SSE,153,1.0,3.0,49,0.00,,,0.00,Wunderground v.1.15,2013-03-22 18:53:00,
2013-03-22 14:54:00,44.7,26.7,30.01,SSE,153,2.0,3.0,49,0.00,,,0.00,Wunderground v.1.15,2013-03-22 18:54:00,
2013-03-22 14:55:00,44.8,26.3,30.01,SSE,153,2.0,3.0,48,0.00,,,0.00,Wunderground v.1.15,2013-03-22 18:55:00,
2013-03-22 14:57:00,44.9,26.4,30.01,SSE,152,1.0,3.0,48,0.00,,,0.00,Wunderground v.1.15,2013-03-22 18:57:00,
2013-03-22 14:58:00,45.0,27.0,30.00,SSE,153,1.0,3.0,49,0.00,,,0.00,Wunderground v.1.15,2013-03-22 18:58:00,
2013-03-22 14:59:00,45.0,27.0,30.01,SSE,152,3.0,4.0,49,0.00,,,0.00,Wunderground v.1.15,2013-03-22 18:59:00,
2013-03-22 15:00:00,45.0,26.5,30.00,SSE,153,2.0,3.0,48,0.00,,,0.00,Wunderground v.1.15,2013-03-22 19:00:00,
2013-03-22 15:03:00,45.0,26.5,30.00,SSE,152,0.0,3.0,48,0.00,,,0.00,Wunderground v.1.15,2013-03-22 19:03:00,
2013-03-22 15:05:00,45.0,26.0,30.00,SSE,152,2.0,3.0,47,0.00,,,0.00,Wunderground v.1.15,2013-03-22 19:05:00,
2013-03-22 15:06:00,45.0,26.0,30.00,SSE,153,3.0,4.0,47,0.00,,,0.00,Wunderground v.1.15,2013-03-22 19:06:00,
2013-03-22 15:08:00,45.0,26.0,30.01,SSE,152,0.0,4.0,47,0.00,,,0.00,Wunderground v.1.15,2013-03-22 19:08:00,
2013-03-22 15:10:00,45.0,26.5,30.00,SSE,153,2.0,2.0,48,0.00,,,0.00,Wunderground v.1.15,2013-03-22 19:10:00,
2013-03-22 15:11:00,45.0,26.0,30.00,SSE,153,0.0,2.0,47,0.00,,,0.00,Wunderground v.1.15,2013-03-22 19:11:00,
2013-03-22 15:13:00,45.0,26.5,30.00,SSE,153,1.0,3.0,48,0.00,,,0.00,Wunderground v.1.15,2013-03-22 19:13:00,
2013-03-22 15:15:00,45.0,26.5,30.00,SSE,153,2.0,4.0,48,0.00,,,0.00,Wunderground v.1.15,2013-03-22 19:15:00,
2013-03-22 15:17:00,45.1,26.1,30.00,SSE,153,2.0,4.0,47,0.00,,,0.00,Wunderground v.1.15,2013-03-22 19:17:00,
2013-03-22 15:18:00,45.1,26.1,30.00,SSE,153,1.0,4.0,47,0.00,,,0.00,Wunderground v.1.15,2013-03-22 19:18:00,
2013-03-22 15:20:00,45.2,26.7,30.00,SSE,152,0.0,1.0,48,0.00,,,0.00,Wunderground v.1.15,2013-03-22 19:20:00,
2013-03-22 15:22:00,45.3,26.7,30.00,SSE,152,1.0,1.0,48,0.00,,,0.00,Wunderground v.1.15,2013-03-22 19:22:00,
2013-03-22 15:23:00,45.4,26.8,30.00,SSE,152,2.0,3.0,48,0.00,,,0.00,Wunderground v.1.15,2013-03-22 19:23:00,
2013-03-22 15:25:00,45.4,26.3,30.00,SSE,153,2.0,5.0,47,0.00,,,0.00,Wunderground v.1.15,2013-03-22 19:25:00,
2013-03-22 15:27:00,45.3,26.7,30.00,SSE,153,5.0,5.0,48,0.00,,,0.00,Wunderground v.1.15,2013-03-22 19:27:00,
2013-03-22 15:28:00,45.4,26.3,30.00,SSE,152,3.0,5.0,47,0.00,,,0.00,Wunderground v.1.15,2013-03-22 19:28:00,
2013-03-22 15:30:00,45.4,26.8,30.00,SSE,153,2.0,2.0,48,0.00,,,0.00,Wunderground v.1.15,2013-03-22 19:30:00,
2013-03-22 15:33:00,45.3,26.2,30.00,SSE,153,1.0,3.0,47,0.00,,,0.00,Wunderground v.1.15,2013-03-22 19:33:00,
2013-03-22 15:35:00,45.3,26.7,30.00,SSE,153,1.0,3.0,48,0.00,,,0.00,Wunderground v.1.15,2013-03-22 19:35:00,
2013-03-22 15:36:00,45.3,26.7,30.00,SSE,153,1.0,3.0,48,0.00,,,0.00,Wunderground v.1.15,2013-03-22 19:36:00,
2013-03-22 15:38:00,45.2,26.7,30.00,SSE,153,3.0,3.0,48,0.00,,,0.00,Wunderground v.1.15,2013-03-22 19:38:00,
2013-03-22 15:40:00,45.2,27.2,30.00,SSE,153,0.0,2.0,49,0.00,,,0.00,Wunderground v.1.15,2013-03-22 19:40:00,
2013-03-22 15:41:00,45.2,27.2,30.00,SSE,152,0.0,2.0,49,0.00,,,0.00,Wunderground v.1.15,2013-03-22 19:41:00,
2013-03-22 15:43:00,45.2,27.2,30.00,SSE,153,1.0,3.0,49,0.00,,,0.00,Wunderground v.1.15,2013-03-22 19:43:00,
2013-03-22 15:45:00,45.3,26.7,29.99,SSE,152,4.0,4.0,48,0.00,,,0.00,Wunderground v.1.15,2013-03-22 19:45:00,
2013-03-22 15:46:00,45.2,26.7,30.00,SSE,153,2.0,4.0,48,0.00,,,0.00,Wunderground v.1.15,2013-03-22 19:46:00,
2013-03-22 15:48:00,45.2,27.2,29.99,SSE,152,1.0,4.0,49,0.00,,,0.00,Wunderground v.1.15,2013-03-22 19:48:00,
2013-03-22 15:49:00,45.2,27.2,29.99,SSE,152,0.0,4.0,49,0.00,,,0.00,Wunderground v.1.15,2013-03-22 19:49:00,
2013-03-22 15:50:00,45.1,27.1,29.99,SSE,152,2.0,4.0,49,0.00,,,0.00,Wunderground v.1.15,2013-03-22 19:50:00,
2013-03-22 15:52:00,45.0,26.5,29.99,SSE,153,2.0,4.0,48,0.00,,,0.00,Wunderground v.1.15,2013-03-22 19:52:00,
2013-03-22 15:53:00,45.0,26.5,29.99,SSE,153,3.0,4.0,48,0.00,,,0.00,Wunderground v.1.15,2013-03-22 19:53:00,
2013-03-22 15:54:00,45.0,26.5,29.99,SSE,153,2.0,4.0,48,0.00,,,0.00,Wunderground v.1.15,2013-03-22 19:54:00,
2013-03-22 15:55:00,45.0,27.0,29.99,SSE,153,3.0,4.0,49,0.00,,,0.00,Wunderground v.1.15,2013-03-22 19:55:00,
2013-03-22 15:57:00,45.0,27.0,29.99,SSE,153,1.0,4.0,49,0.00,,,0.00,Wunderground v.1.15,2013-03-22 19:57:00,
2013-03-22 15:58:00,45.0,27.0,29.98,SSE,153,0.0,4.0,49,0.00,,,0.00,Wunderground v.1.15,2013-03-22 19:58:00,
2013-03-22 15:59:00,45.0,27.0,29.98,SSE,153,2.0,4.0,49,0.00,,,0.00,Wunderground v.1.15,2013-03-22 19:59:00,
2013-03-22 16:01:00,45.0,27.5,29.98,SSE,153,3.0,5.0,50,0.00,,,0.00,Wunderground v.1.15,2013-03-22 20:01:00,
2013-03-22 16:02:00,45.0,27.0,29.98,SSE,153,1.0,5.0,49,0.00,,,0.00,Wunderground v.1.15,2013-03-22 20:02:00,
2013-03-22 16:03:00,45.0,27.0,29.98,SSE,152,1.0,5.0,49,0.00,,,0.00,Wunderground v.1.15,2013-03-22 20:03:00,
2013-03-22 16:04:00,45.0,27.0,29.98,SSE,153,2.0,5.0,49,0.00,,,0.00,Wunderground v.1.15,2013-03-22 20:04:00,
2013-03-22 16:06:00,45.0,27.0,29.98,SSE,153,1.0,5.0,49,0.00,,,0.00,Wunderground v.1.15,2013-03-22 20:06:00,
2013-03-22 16:08:00,45.1,26.6,29.98,SSE,152,1.0,5.0,48,0.00,,,0.00,Wunderground v.1.15,2013-03-22 20:08:00,
2013-03-22 16:09:00,45.1,27.1,29.98,SSE,153,0.0,5.0,49,0.00,,,0.00,Wunderground v.1.15,2013-03-22 20:09:00,
2013-03-22 16:12:00,45.2,27.2,29.98,SSE,153,4.0,4.0,49,0.00,,,0.00,Wunderground v.1.15,2013-03-22 20:12:00,
2013-03-22 16:13:00,45.1,26.6,29.98,SSE,152,2.0,4.0,48,0.00,,,0.00,Wunderground v.1.15,2013-03-22 20:13:00,
2013-03-22 16:14:00,45.1,26.6,29.98,SSE,153,2.0,4.0,48,0.00,,,0.00,Wunderground v.1.15,2013-03-22 20:14:00,
2013-03-22 16:17:00,45.0,27.0,29.98,SSE,153,0.0,4.0,49,0.00,,,0.00,Wunderground v.1.15,2013-03-22 20:17:00,
2013-03-22 16:18:00,45.0,27.5,29.98,SSE,153,0.0,4.0,50,0.00,,,0.00,Wunderground v.1.15,2013-03-22 20:18:00,
2013-03-22 16:19:00,45.0,27.5,29.98,SSE,153,2.0,4.0,50,0.00,,,0.00,Wunderground v.1.15,2013-03-22 20:19:00,
2013-03-22 16:22:00,45.1,27.1,29.98,SSE,152,2.0,2.0,49,0.00,,,0.00,Wunderground v.1.15,2013-03-22 20:22:00,
2013-03-22 16:23:00,45.2,27.2,29.98,SSE,153,0.0,2.0,49,0.00,,,0.00,Wunderground v.1.15,2013-03-22 20:23:00,
2013-03-22 16:24:00,45.1,27.6,29.98,SSE,153,1.0,2.0,50,0.00,,,0.00,Wunderground v.1.15,2013-03-22 20:24:00,
2013-03-22 16:28:00,45.1,26.6,29.98,SSE,153,2.0,4.0,48,0.00,,,0.00,Wunderground v.1.15,2013-03-22 20:28:00,
2013-03-22 16:29:00,45.0,27.0,29.98,SSE,153,3.0,4.0,49,0.00,,,0.00,Wunderground v.1.15,2013-03-22 20:29:00,
2013-03-22 16:33:00,45.1,26.6,29.98,SSE,153,2.0,3.0,48,0.00,,,0.00,Wunderground v.1.15,2013-03-22 20:33:00,
2013-03-22 16:34:00,45.1,26.6,29.98,SSE,153,0.0,3.0,48,0.00,,,0.00,Wunderground v.1.15,2013-03-22 20:34:00,
2013-03-22 16:35:00,45.1,26.6,29.98,SSE,153,0.0,3.0,48,0.00,,,0.00,Wunderground v.1.15,2013-03-22 20:35:00,
2013-03-22 16:38:00,45.1,26.6,29.98,SSE,153,1.0,3.0,48,0.00,,,0.00,Wunderground v.1.15,2013-03-22 20:38:00,
2013-03-22 16:39:00,45.1,26.1,29.98,SSE,153,1.0,3.0,47,0.00,,,0.00,Wunderground v.1.15,2013-03-22 20:39:00,
2013-03-22 16:40:00,45.1,26.6,29.98,SSE,153,2.0,2.0,48,0.00,,,0.00,Wunderground v.1.15,2013-03-22 20:40:00,
2013-03-22 16:43:00,45.2,27.2,29.98,SSE,152,1.0,2.0,49,0.00,,,0.00,Wunderground v.1.15,2013-03-22 20:43:00,
2013-03-22 16:44:00,45.1,27.1,29.98,SSE,152,2.0,4.0,49,0.00,,,0.00,Wunderground v.1.15,2013-03-22 20:44:00,
2013-03-22 16:45:00,45.2,26.7,29.98,SSE,153,2.0,4.0,48,0.00,,,0.00,Wunderground v.1.15,2013-03-22 20:45:00,
2013-03-22 16:48:00,45.3,26.7,29.98,SSE,153,2.0,4.0,48,0.00,,,0.00,Wunderground v.1.15,2013-03-22 20:48:00,
2013-03-22 16:49:00,45.3,26.7,29.98,SSE,152,1.0,4.0,48,0.00,,,0.00,Wunderground v.1.15,2013-03-22 20:49:00,
2013-03-22 16:50:00,45.3,26.7,29.99,SSE,153,0.0,1.0,48,0.00,,,0.00,Wunderground v.1.15,2013-03-22 20:50:00,
2013-03-22 16:51:00,45.3,26.7,29.98,SSE,152,0.0,1.0,48,0.00,,,0.00,Wunderground v.1.15,2013-03-22 20:51:00,
2013-03-22 16:53:00,45.3,26.7,29.98,SSE,152,2.0,3.0,48,0.00,,,0.00,Wunderground v.1.15,2013-03-22 20:53:00,
2013-03-22 16:54:00,45.3,27.2,29.98,SSE,153,3.0,3.0,49,0.00,,,0.00,Wunderground v.1.15,2013-03-22 20:54:00,
2013-03-22 16:55:00,45.3,27.2,29.98,SSE,152,1.0,3.0,49,0.00,,,0.00,Wunderground v.1.15,2013-03-22 20:55:00,
2013-03-22 16:56:00,45.3,26.7,29.98,SSE,152,1.0,3.0,48,0.00,,,0.00,Wunderground v.1.15,2013-03-22 20:56:00,
2013-03-22 16:59:00,45.3,27.2,29.98,SSE,153,2.0,3.0,49,0.00,,,0.00,Wunderground v.1.15,2013-03-22 20:59:00,
2013-03-22 17:00:00,45.3,27.2,29.98,SSE,153,1.0,1.0,49,0.00,,,0.00,Wunderground v.1.15,2013-03-22 21:00:00,
2013-03-22 17:02:00,45.3,26.7,29.98,SSE,153,1.0,2.0,48,0.00,,,0.00,Wunderground v.1.15,2013-03-22 21:02:00,
2013-03-22 17:04:00,45.3,26.7,29.98,SSE,153,2.0,3.0,48,0.00,,,0.00,Wunderground v.1.15,2013-03-22 21:04:00,
2013-03-22 17:05:00,45.3,26.7,29.98,SSE,152,3.0,3.0,48,0.00,,,0.00,Wunderground v.1.15,2013-03-22 21:05:00,
2013-03-22 17:08:00,45.3,26.7,29.98,SSE,153,1.0,3.0,48,0.00,,,0.00,Wunderground v.1.15,2013-03-22 21:08:00,
2013-03-22 17:09:00,45.3,27.2,29.99,SSE,153,0.0,3.0,49,0.00,,,0.00,Wunderground v.1.15,2013-03-22 21:09:00,
2013-03-22 17:10:00,45.3,26.7,29.98,SSE,152,1.0,2.0,48,0.00,,,0.00,Wunderground v.1.15,2013-03-22 21:10:00,
2013-03-22 17:13:00,45.3,26.7,29.98,SSE,152,1.0,3.0,48,0.00,,,0.00,Wunderground v.1.15,2013-03-22 21:13:00,
2013-03-22 17:14:00,45.4,27.3,29.98,SSE,152,1.0,3.0,49,0.00,,,0.00,Wunderground v.1.15,2013-03-22 21:14:00,
2013-03-22 17:15:00,45.3,26.7,29.98,SSE,152,0.0,3.0,48,0.00,,,0.00,Wunderground v.1.15,2013-03-22 21:15:00,
2013-03-22 17:19:00,45.4,27.3,29.98,SSE,153,1.0,3.0,49,0.00,,,0.00,Wunderground v.1.15,2013-03-22 21:19:00,
2013-03-22 17:21:00,45.4,27.3,29.98,SSE,153,2.0,3.0,49,0.00,,,0.00,Wunderground v.1.15,2013-03-22 21:21:00,
2013-03-22 17:24:00,45.4,26.8,29.98,SSE,153,2.0,3.0,48,0.00,,,0.00,Wunderground v.1.15,2013-03-22 21:24:00,
2013-03-22 17:27:00,45.4,26.8,29.98,SSE,152,2.0,3.0,48,0.00,,,0.00,Wunderground v.1.15,2013-03-22 21:27:00,
2013-03-22 17:29:00,45.3,27.2,29.98,SSE,152,1.0,4.0,49,0.00,,,0.00,Wunderground v.1.15,2013-03-22 21:29:00,
2013-03-22 17:30:00,45.3,27.2,29.98,SSE,152,1.0,2.0,49,0.00,,,0.00,Wunderground v.1.15,2013-03-22 21:30:00,
2013-03-22 17:32:00,45.3,27.2,29.98,SSE,152,2.0,2.0,49,0.00,,,0.00,Wunderground v.1.15,2013-03-22 21:32:00,
2013-03-22 17:34:00,45.3,28.2,29.98,SSE,153,0.0,2.0,51,0.00,,,0.00,Wunderground v.1.15,2013-03-22 21:34:00,
2013-03-22 17:36:00,45.4,27.8,29.98,SSE,153,1.0,2.0,50,0.00,,,0.00,Wunderground v.1.15,2013-03-22 21:36:00,
2013-03-22 17:38:00,45.4,27.3,29.98,SSE,153,0.0,2.0,49,0.00,,,0.00,Wunderground v.1.15,2013-03-22 21:38:00,
2013-03-22 17:39:00,45.4,27.8,29.98,SSE,152,3.0,3.0,50,0.00,,,0.00,Wunderground v.1.15,2013-03-22 21:39:00,
2013-03-22 17:40:00,45.4,27.3,29.98,SSE,153,1.0,2.0,49,0.00,,,0.00,Wunderground v.1.15,2013-03-22 21:40:00,
2013-03-22 17:41:00,45.4,27.3,29.98,SSE,153,2.0,3.0,49,0.00,,,0.00,Wunderground v.1.15,2013-03-22 21:41:00,
2013-03-22 17:43:00,45.4,28.3,29.98,SSE,153,1.0,3.0,51,0.00,,,0.00,Wunderground v.1.15,2013-03-22 21:43:00,
2013-03-22 17:45:00,45.4,27.8,29.98,SSE,152,2.0,3.0,50,0.00,,,0.00,Wunderground v.1.15,2013-03-22 21:45:00,
2013-03-22 17:46:00,45.4,28.3,29.98,SSE,153,0.0,3.0,51,0.00,,,0.00,Wunderground v.1.15,2013-03-22 21:46:00,
2013-03-22 17:49:00,45.4,27.3,29.98,SSE,153,0.0,3.0,49,0.00,,,0.00,Wunderground v.1.15,2013-03-22 21:49:00,
2013-03-22 17:50:00,45.3,27.7,29.98,SSE,152,1.0,2.0,50,0.00,,,0.00,Wunderground v.1.15,2013-03-22 21:50:00,
2013-03-22 17:52:00,45.3,27.2,29.98,SSE,153,2.0,2.0,49,0.00,,,0.00,Wunderground v.1.15,2013-03-22 21:52:00,
2013-03-22 17:54:00,45.2,27.2,29.98,SSE,152,1.0,2.0,49,0.00,,,0.00,Wunderground v.1.15,2013-03-22 21:54:00,
2013-03-22 17:55:00,45.2,27.2,29.98,SSE,153,1.0,2.0,49,0.00,,,0.00,Wunderground v.1.15,2013-03-22 21:55:00,
2013-03-22 17:57:00,45.1,27.6,29.98,SSE,153,2.0,2.0,50,0.00,,,0.00,Wunderground v.1.15,2013-03-22 21:57:00,
2013-03-22 18:00:00,45.0,27.0,29.98,SSE,153,0.0,1.0,49,0.00,,,0.00,Wunderground v.1.15,2013-03-22 22:00:00,
2013-03-22 18:01:00,45.0,27.5,29.98,SSE,152,0.0,1.0,50,0.00,,,0.00,Wunderground v.1.15,2013-03-22 22:01:00,
2013-03-22 18:02:00,45.0,27.9,29.98,SSE,152,0.0,1.0,51,0.00,,,0.00,Wunderground v.1.15,2013-03-22 22:02:00,
2013-03-22 18:05:00,45.0,27.0,29.98,SSE,153,0.0,1.0,49,0.00,,,0.00,Wunderground v.1.15,2013-03-22 22:05:00,
2013-03-22 18:06:00,45.0,27.5,29.98,SSE,153,0.0,1.0,50,0.00,,,0.00,Wunderground v.1.15,2013-03-22 22:06:00,
2013-03-22 18:07:00,45.0,27.5,29.98,SSE,152,1.0,1.0,50,0.00,,,0.00,Wunderground v.1.15,2013-03-22 22:07:00,
2013-03-22 18:10:00,45.0,27.0,29.98,SSE,153,0.0,0.0,49,0.00,,,0.00,Wunderground v.1.15,2013-03-22 22:10:00,
2013-03-22 18:11:00,45.0,28.4,29.98,SSE,153,0.0,0.0,52,0.00,,,0.00,Wunderground v.1.15,2013-03-22 22:11:00,
2013-03-22 18:12:00,45.0,27.9,29.98,SSE,152,0.0,0.0,51,0.00,,,0.00,Wunderground v.1.15,2013-03-22 22:12:00,
2013-03-22 18:15:00,45.0,27.9,29.98,SSE,153,0.0,1.0,51,0.00,,,0.00,Wunderground v.1.15,2013-03-22 22:15:00,
2013-03-22 18:17:00,45.0,27.9,29.98,SSE,152,0.0,1.0,51,0.00,,,0.00,Wunderground v.1.15,2013-03-22 22:17:00,
2013-03-22 18:20:00,45.0,27.5,29.98,SSE,153,0.0,0.0,50,0.00,,,0.00,Wunderground v.1.15,2013-03-22 22:20:00,
2013-03-22 18:22:00,45.0,27.0,29.98,SSE,153,0.0,0.0,49,0.00,,,0.00,Wunderground v.1.15,2013-03-22 22:22:00,
2013-03-22 18:23:00,45.0,27.9,29.98,SSE,153,0.0,0.0,51,0.00,,,0.00,Wunderground v.1.15,2013-03-22 22:23:00,
2013-03-22 18:26:00,45.0,27.5,29.98,SSE,153,0.0,0.0,50,0.00,,,0.00,Wunderground v.1.15,2013-03-22 22:26:00,
2013-03-22 18:27:00,45.0,27.9,29.99,SSE,153,0.0,0.0,51,0.00,,,0.00,Wunderground v.1.15,2013-03-22 22:27:00,
2013-03-22 18:28:00,45.0,27.5,29.99,SSE,152,0.0,0.0,50,0.00,,,0.00,Wunderground v.1.15,2013-03-22 22:28:00,
2013-03-22 18:31:00,45.0,27.5,29.99,SSE,152,0.0,0.0,50,0.00,,,0.00,Wunderground v.1.15,2013-03-22 22:31:00,
2013-03-22 18:32:00,45.0,27.0,29.99,SSE,152,0.0,0.0,49,0.00,,,0.00,Wunderground v.1.15,2013-03-22 22:32:00,
2013-03-22 18:33:00,45.0,27.5,29.99,SSE,153,0.0,0.0,50,0.00,,,0.00,Wunderground v.1.15,2013-03-22 22:33:00,
2013-03-22 18:37:00,45.0,27.9,29.98,SSE,153,0.0,0.0,51,0.00,,,0.00,Wunderground v.1.15,2013-03-22 22:37:00,
2013-03-22 18:38:00,45.0,28.4,29.98,SSE,153,0.0,0.0,52,0.00,,,0.00,Wunderground v.1.15,2013-03-22 22:38:00,
2013-03-22 18:39:00,45.1,29.9,29.98,SSE,152,0.0,0.0,55,0.00,,,0.00,Wunderground v.1.15,2013-03-22 22:39:00,
2013-03-22 18:42:00,45.1,30.8,29.98,SSE,153,0.0,0.0,57,0.00,,,0.00,Wunderground v.1.15,2013-03-22 22:42:00,
2013-03-22 18:43:00,45.1,30.8,29.98,SSE,153,0.0,0.0,57,0.00,,,0.00,Wunderground v.1.15,2013-03-22 22:43:00,
2013-03-22 18:44:00,45.1,30.3,29.98,SSE,152,0.0,0.0,56,0.00,,,0.00,Wunderground v.1.15,2013-03-22 22:44:00,
2013-03-22 18:48:00,45.1,29.4,29.98,SSE,153,0.0,0.0,54,0.00,,,0.00,Wunderground v.1.15,2013-03-22 22:48:00,
2013-03-22 18:49:00,45.1,29.9,29.98,SSE,153,0.0,0.0,55,0.00,,,0.00,Wunderground v.1.15,2013-03-22 22:49:00,
2013-03-22 18:50:00,45.1,29.9,29.98,SSE,153,0.0,0.0,55,0.00,,,0.00,Wunderground v.1.15,2013-03-22 22:50:00,
2013-03-22 18:53:00,45.1,29.9,29.98,SSE,153,0.0,0.0,55,0.00,,,0.00,Wunderground v.1.15,2013-03-22 22:53:00,
2013-03-22 18:54:00,45.1,29.0,29.99,SSE,152,0.0,0.0,53,0.00,,,0.00,Wunderground v.1.15,2013-03-22 22:54:00,
2013-03-22 18:55:00,45.1,29.0,29.99,SSE,152,0.0,0.0,53,0.00,,,0.00,Wunderground v.1.15,2013-03-22 22:55:00,
2013-03-22 18:58:00,45.1,28.5,29.99,SSE,153,0.0,0.0,52,0.00,,,0.00,Wunderground v.1.15,2013-03-22 22:58:00,
2013-03-22 18:59:00,45.1,29.4,29.99,SSE,152,0.0,0.0,54,0.00,,,0.00,Wunderground v.1.15,2013-03-22 22:59:00,
2013-03-22 19:00:00,45.1,28.5,29.99,SSE,153,0.0,0.0,52,0.00,,,0.00,Wunderground v.1.15,2013-03-22 23:00:00,
2013-03-22 19:03:00,45.1,29.4,29.99,SSE,152,0.0,0.0,54,0.00,,,0.00,Wunderground v.1.15,2013-03-22 23:03:00,
2013-03-22 19:04:00,45.1,28.5,29.99,SSE,153,0.0,0.0,52,0.00,,,0.00,Wunderground v.1.15,2013-03-22 23:04:00,
2013-03-22 19:05:00,45.1,29.0,29.99,SSE,152,0.0,0.0,53,0.00,,,0.00,Wunderground v.1.15,2013-03-22 23:05:00,
2013-03-22 19:08:00,45.0,28.4,29.99,SSE,153,0.0,0.0,52,0.00,,,0.00,Wunderground v.1.15,2013-03-22 23:08:00,
2013-03-22 19:10:00,45.0,29.8,29.99,SSE,153,0.0,0.0,55,0.00,,,0.00,Wunderground v.1.15,2013-03-22 23:10:00,
2013-03-22 19:13:00,45.0,30.7,29.99,SSE,152,0.0,0.0,57,0.00,,,0.00,Wunderground v.1.15,2013-03-22 23:13:00,
2013-03-22 19:15:00,45.0,29.3,29.99,SSE,153,0.0,0.0,54,0.00,,,0.00,Wunderground v.1.15,2013-03-22 23:15:00,
2013-03-22 19:16:00,45.0,29.3,29.98,SSE,153,0.0,0.0,54,0.00,,,0.00,Wunderground v.1.15,2013-03-22 23:16:00,
2013-03-22 19:18:00,44.9,29.2,29.98,SSE,152,0.0,0.0,54,0.00,,,0.00,Wunderground v.1.15,2013-03-22 23:18:00,
2013-03-22 19:20:00,44.9,29.7,29.98,SSE,153,0.0,0.0,55,0.00,,,0.00,Wunderground v.1.15,2013-03-22 23:20:00,
2013-03-22 19:21:00,44.9,29.7,29.98,SSE,153,0.0,0.0,55,0.00,,,0.00,Wunderground v.1.15,2013-03-22 23:21:00,
2013-03-22 19:24:00,44.8,29.6,29.99,SSE,153,0.0,0.0,55,0.00,,,0.00,Wunderground v.1.15,2013-03-22 23:24:00,
2013-03-22 19:26:00,44.8,29.6,29.99,SSE,152,0.0,0.0,55,0.00,,,0.00,Wunderground v.1.15,2013-03-22 23:26:00,
2013-03-22 19:29:00,44.7,29.5,29.99,SSE,153,0.0,0.0,55,0.00,,,0.00,Wunderground v.1.15,2013-03-22 23:29:00,
2013-03-22 19:31:00,44.6,30.3,29.99,SSE,153,0.0,0.0,57,0.00,,,0.00,Wunderground v.1.15,2013-03-22 23:31:00,
2013-03-22 19:32:00,44.6,30.7,29.99,SSE,153,0.0,0.0,58,0.00,,,0.00,Wunderground v.1.15,2013-03-22 23:32:00,
2013-03-22 19:34:00,44.6,30.7,29.99,SSE,153,0.0,0.0,58,0.00,,,0.00,Wunderground v.1.15,2013-03-22 23:34:00,
2013-03-22 19:37:00,44.5,29.8,29.99,SSE,152,0.0,0.0,56,0.00,,,0.00,Wunderground v.1.15,2013-03-22 23:37:00,
2013-03-22 19:39:00,44.4,29.2,29.99,SSE,152,0.0,0.0,55,0.00,,,0.00,Wunderground v.1.15,2013-03-22 23:39:00,
2013-03-22 19:40:00,44.4,29.2,29.99,SSE,153,0.0,0.0,55,0.00,,,0.00,Wunderground v.1.15,2013-03-22 23:40:00,
2013-03-22 19:42:00,44.3,28.7,29.99,SSE,153,0.0,0.0,54,0.00,,,0.00,Wunderground v.1.15,2013-03-22 23:42:00,
2013-03-22 19:45:00,44.3,29.1,29.99,SSE,153,0.0,0.0,55,0.00,,,0.00,Wunderground v.1.15,2013-03-22 23:45:00,
2013-03-22 19:47:00,44.2,27.7,29.99,SSE,152,0.0,0.0,52,0.00,,,0.00,Wunderground v.1.15,2013-03-22 23:47:00,
2013-03-22 19:50:00,44.2,27.7,29.99,SSE,153,0.0,0.0,52,0.00,,,0.00,Wunderground v.1.15,2013-03-22 23:50:00,
2013-03-22 19:52:00,44.2,28.1,29.99,SSE,153,0.0,0.0,53,0.00,,,0.00,Wunderground v.1.15,2013-03-22 23:52:00,
2013-03-22 19:53:00,44.1,28.0,29.99,SSE,153,0.0,0.0,53,0.00,,,0.00,Wunderground v.1.15,2013-03-22 23:53:00,
2013-03-22 19:55:00,44.2,29.0,29.99,SSE,153,0.0,0.0,55,0.00,,,0.00,Wunderground v.1.15,2013-03-22 23:55:00,
2013-03-22 19:56:00,44.2,29.0,29.99,SSE,153,0.0,0.0,55,0.00,,,0.00,Wunderground v.1.15,2013-03-22 23:56:00,
2013-03-22 19:58:00,44.1,29.4,29.99,SSE,153,0.0,0.0,56,0.00,,,0.00,Wunderground v.1.15,2013-03-22 23:58:00,
2013-03-22 20:00:00,44.1,29.8,30.00,SSE,153,0.0,0.0,57,0.00,,,0.00,Wunderground v.1.15,2013-03-23 00:00:00,
2013-03-22 20:01:00,44.0,29.7,29.99,SSE,153,0.0,0.0,57,0.00,,,0.00,Wunderground v.1.15,2013-03-23 00:01:00,
2013-03-22 20:03:00,44.1,30.3,29.99,SSE,152,0.0,0.0,58,0.00,,,0.00,Wunderground v.1.15,2013-03-23 00:03:00,
2013-03-22 20:04:00,44.0,30.2,29.99,SSE,153,0.0,0.0,58,0.00,,,0.00,Wunderground v.1.15,2013-03-23 00:04:00,
2013-03-22 20:06:00,44.0,30.2,30.00,SSE,153,0.0,0.0,58,0.00,,,0.00,Wunderground v.1.15,2013-03-23 00:06:00,
2013-03-22 20:07:00,43.9,30.1,30.00,SSE,153,0.0,0.0,58,0.00,,,0.00,Wunderground v.1.15,2013-03-23 00:07:00,
2013-03-22 20:08:00,43.9,30.1,29.99,SSE,153,0.0,0.0,58,0.00,,,0.00,Wunderground v.1.15,2013-03-23 00:08:00,
2013-03-22 20:09:00,43.9,30.1,29.99,SSE,153,0.0,0.0,58,0.00,,,0.00,Wunderground v.1.15,2013-03-23 00:09:00,
2013-03-22 20:12:00,43.9,29.2,30.00,SSE,152,0.0,0.0,56,0.00,,,0.00,Wunderground v.1.15,2013-03-23 00:12:00,
2013-03-22 20:14:00,43.8,28.7,30.00,SSE,153,0.0,0.0,55,0.00,,,0.00,Wunderground v.1.15,2013-03-23 00:14:00,
2013-03-22 20:15:00,43.8,28.7,30.00,SSE,153,0.0,0.0,55,0.00,,,0.00,Wunderground v.1.15,2013-03-23 00:15:00,
2013-03-22 20:17:00,43.8,28.7,30.00,SSE,153,0.0,0.0,55,0.00,,,0.00,Wunderground v.1.15,2013-03-23 00:17:00,
2013-03-22 20:19:00,43.8,28.2,30.00,SSE,152,0.0,0.0,54,0.00,,,0.00,Wunderground v.1.15,2013-03-23 00:19:00,
2013-03-22 20:20:00,43.8,28.2,30.00,SSE,153,0.0,0.0,54,0.00,,,0.00,Wunderground v.1.15,2013-03-23 00:20:00,
2013-03-22 20:22:00,43.8,28.7,30.00,SSE,153,0.0,0.0,55,0.00,,,0.00,Wunderground v.1.15,2013-03-23 00:22:00,
2013-03-22 20:23:00,43.7,28.6,30.00,SSE,153,0.0,0.0,55,0.00,,,0.00,Wunderground v.1.15,2013-03-23 00:23:00,
2013-03-22 20:24:00,43.7,29.0,30.00,SSE,153,0.0,0.0,56,0.00,,,0.00,Wunderground v.1.15,2013-03-23 00:24:00,
2013-03-22 20:26:00,43.8,29.1,30.00,SSE,152,0.0,0.0,56,0.00,,,0.00,Wunderground v.1.15,2013-03-23 00:26:00,
2013-03-22 20:27:00,43.7,29.0,30.00,SSE,152,0.0,0.0,56,0.00,,,0.00,Wunderground v.1.15,2013-03-23 00:27:00,
2013-03-22 20:28:00,43.7,29.0,30.00,SSE,152,0.0,0.0,56,0.00,,,0.00,Wunderground v.1.15,2013-03-23 00:28:00,
2013-03-22 20:29:00,43.7,29.5,30.00,SSE,153,0.0,0.0,57,0.00,,,0.00,Wunderground v.1.15,2013-03-23 00:29:00,
2013-03-22 20:31:00,43.7,29.9,30.00,SSE,152,0.0,0.0,58,0.00,,,0.00,Wunderground v.1.15,2013-03-23 00:31:00,
2013-03-22 20:33:00,43.6,29.4,30.00,SSE,153,0.0,0.0,57,0.00,,,0.00,Wunderground v.1.15,2013-03-23 00:33:00,
2013-03-22 20:34:00,43.6,29.8,30.00,SSE,153,0.0,0.0,58,0.00,,,0.00,Wunderground v.1.15,2013-03-23 00:34:00,
2013-03-22 20:36:00,43.6,29.4,29.99,SSE,152,0.0,0.0,57,0.00,,,0.00,Wunderground v.1.15,2013-03-23 00:36:00,
2013-03-22 20:38:00,43.4,29.2,29.99,SSE,153,0.0,0.0,57,0.00,,,0.00,Wunderground v.1.15,2013-03-23 00:38:00,
2013-03-22 20:39:00,43.4,29.2,30.00,SSE,153,0.0,0.0,57,0.00,,,0.00,Wunderground v.1.15,2013-03-23 00:39:00,
2013-03-22 20:42:00,43.4,29.6,30.00,SSE,152,0.0,0.0,58,0.00,,,0.00,Wunderground v.1.15,2013-03-23 00:42:00,
2013-03-22 20:43:00,43.3,29.5,30.00,SSE,152,0.0,0.0,58,0.00,,,0.00,Wunderground v.1.15,2013-03-23 00:43:00,
2013-03-22 20:44:00,43.3,29.9,30.00,SSE,152,0.0,0.0,59,0.00,,,0.00,Wunderground v.1.15,2013-03-23 00:44:00,
2013-03-22 20:45:00,43.3,29.9,30.00,SSE,153,0.0,0.0,59,0.00,,,0.00,Wunderground v.1.15,2013-03-23 00:45:00,
2013-03-22 20:47:00,43.2,29.8,30.00,SSE,152,0.0,0.0,59,0.00,,,0.00,Wunderground v.1.15,2013-03-23 00:47:00,
2013-03-22 20:49:00,43.2,29.8,30.00,SSE,152,0.0,0.0,59,0.00,,,0.00,Wunderground v.1.15,2013-03-23 00:49:00,
2013-03-22 20:50:00,43.2,29.4,30.00,SSE,153,0.0,0.0,58,0.00,,,0.00,Wunderground v.1.15,2013-03-23 00:50:00,
2013-03-22 20:51:00,43.2,29.4,30.00,SSE,153,0.0,0.0,58,0.00,,,0.00,Wunderground v.1.15,2013-03-23 00:51:00,
2013-03-22 20:52:00,43.2,29.4,30.00,SSE,152,0.0,0.0,58,0.00,,,0.00,Wunderground v.1.15,2013-03-23 00:52:00,
2013-03-22 20:54:00,43.2,29.4,30.01,SSE,153,0.0,0.0,58,0.00,,,0.00,Wunderground v.1.15,2013-03-23 00:54:00,
2013-03-22 20:55:00,43.2,29.8,30.01,SSE,152,0.0,0.0,59,0.00,,,0.00,Wunderground v.1.15,2013-03-23 00:55:00,
2013-03-22 20:56:00,43.2,29.8,30.01,SSE,152,0.0,0.0,59,0.00,,,0.00,Wunderground v.1.15,2013-03-23 00:56:00,
2013-03-22 20:57:00,43.2,29.8,30.01,SSE,153,0.0,0.0,59,0.00,,,0.00,Wunderground v.1.15,2013-03-23 00:57:00,
2013-03-22 21:00:00,43.2,30.2,30.01,SSE,152,0.0,0.0,60,0.00,,,0.00,Wunderground v.1.15,2013-03-23 01:00:00,
2013-03-22 21:01:00,43.2,29.8,30.01,SSE,153,0.0,0.0,59,0.00,,,0.00,Wunderground v.1.15,2013-03-23 01:01:00,
2013-03-22 21:03:00,43.2,29.8,30.01,SSE,152,0.0,0.0,59,0.00,,,0.00,Wunderground v.1.15,2013-03-23 01:03:00,
2013-03-22 21:05:00,43.2,29.4,30.01,SSE,152,0.0,0.0,58,0.00,,,0.00,Wunderground v.1.15,2013-03-23 01:05:00,
2013-03-22 21:07:00,43.2,29.4,30.01,SSE,153,0.0,0.0,58,0.00,,,0.00,Wunderground v.1.15,2013-03-23 01:07:00,
2013-03-22 21:08:00,43.2,30.6,30.01,SSE,153,0.0,0.0,61,0.00,,,0.00,Wunderground v.1.15,2013-03-23 01:08:00,
2013-03-22 21:10:00,43.2,30.2,30.01,SSE,153,0.0,0.0,60,0.00,,,0.00,Wunderground v.1.15,2013-03-23 01:10:00,
2013-03-22 21:11:00,43.2,30.2,30.01,SSE,153,0.0,0.0,60,0.00,,,0.00,Wunderground v.1.15,2013-03-23 01:11:00,
2013-03-22 21:12:00,43.2,29.8,30.01,SSE,153,0.0,0.0,59,0.00,,,0.00,Wunderground v.1.15,2013-03-23 01:12:00,
2013-03-22 21:13:00,43.2,30.2,30.01,SSE,153,0.0,0.0,60,0.00,,,0.00,Wunderground v.1.15,2013-03-23 01:13:00,
2013-03-22 21:15:00,43.2,30.2,30.01,SSE,152,0.0,0.0,60,0.00,,,0.00,Wunderground v.1.15,2013-03-23 01:15:00,
2013-03-22 21:16:00,43.2,30.2,30.01,SSE,153,0.0,0.0,60,0.00,,,0.00,Wunderground v.1.15,2013-03-23 01:16:00,
2013-03-22 21:17:00,43.2,30.2,30.01,SSE,152,0.0,0.0,60,0.00,,,0.00,Wunderground v.1.15,2013-03-23 01:17:00,
2013-03-22 21:18:00,43.2,30.2,30.01,SSE,153,0.0,0.0,60,0.00,,,0.00,Wunderground v.1.15,2013-03-23 01:18:00,
2013-03-22 21:21:00,43.2,29.4,30.01,SSE,153,0.0,0.0,58,0.00,,,0.00,Wunderground v.1.15,2013-03-23 01:21:00,
2013-03-22 21:22:00,43.2,29.8,30.01,SSE,153,0.0,0.0,59,0.00,,,0.00,Wunderground v.1.15,2013-03-23 01:22:00,
2013-03-22 21:23:00,43.2,29.8,30.01,SSE,153,0.0,0.0,59,0.00,,,0.00,Wunderground v.1.15,2013-03-23 01:23:00,
2013-03-22 21:26:00,43.2,30.2,30.01,SSE,152,0.0,0.0,60,0.00,,,0.00,Wunderground v.1.15,2013-03-23 01:26:00,
2013-03-22 21:27:00,43.2,30.2,30.01,SSE,153,0.0,0.0,60,0.00,,,0.00,Wunderground v.1.15,2013-03-23 01:27:00,
2013-03-22 21:28:00,43.2,30.2,30.01,SSE,153,0.0,0.0,60,0.00,,,0.00,Wunderground v.1.15,2013-03-23 01:28:00,
2013-03-22 21:32:00,43.2,30.6,30.01,SSE,153,0.0,0.0,61,0.00,,,0.00,Wunderground v.1.15,2013-03-23 01:32:00,
2013-03-22 21:33:00,43.2,30.6,30.01,SSE,153,0.0,0.0,61,0.00,,,0.00,Wunderground v.1.15,2013-03-23 01:33:00,
2013-03-22 21:34:00,43.2,31.1,30.01,SSE,153,0.0,0.0,62,0.00,,,0.00,Wunderground v.1.15,2013-03-23 01:34:00,
2013-03-22 21:37:00,43.1,29.3,30.01,SSE,153,0.0,0.0,58,0.00,,,0.00,Wunderground v.1.15,2013-03-23 01:37:00,
2013-03-22 21:38:00,43.1,29.7,30.01,SSE,153,0.0,0.0,59,0.00,,,0.00,Wunderground v.1.15,2013-03-23 01:38:00,
2013-03-22 21:39:00,43.1,29.3,30.01,SSE,153,0.0,0.0,58,0.00,,,0.00,Wunderground v.1.15,2013-03-23 01:39:00,
2013-03-22 21:42:00,43.0,28.8,30.01,SSE,153,0.0,0.0,57,0.00,,,0.00,Wunderground v.1.15,2013-03-23 01:42:00,
2013-03-22 21:44:00,43.0,28.8,30.01,SSE,152,0.0,0.0,57,0.00,,,0.00,Wunderground v.1.15,2013-03-23 01:44:00,
2013-03-22 21:47:00,42.9,28.7,30.01,SSE,153,0.0,0.0,57,0.00,,,0.00,Wunderground v.1.15,2013-03-23 01:47:00,
2013-03-22 21:49:00,42.9,28.7,30.01,SSE,153,0.0,0.0,57,0.00,,,0.00,Wunderground v.1.15,2013-03-23 01:49:00,
2013-03-22 21:50:00,42.9,28.7,30.01,SSE,153,0.0,0.0,57,0.00,,,0.00,Wunderground v.1.15,2013-03-23 01:50:00,
2013-03-22 21:52:00,42.9,28.7,30.01,SSE,152,0.0,0.0,57,0.00,,,0.00,Wunderground v.1.15,2013-03-23 01:52:00,
2013-03-22 21:54:00,42.9,29.5,30.01,SSE,153,0.0,0.0,59,0.00,,,0.00,Wunderground v.1.15,2013-03-23 01:54:00,
2013-03-22 21:55:00,42.9,29.5,30.01,SSE,152,0.0,0.0,59,0.00,,,0.00,Wunderground v.1.15,2013-03-23 01:55:00,
2013-03-22 21:57:00,42.9,30.8,30.01,SSE,153,0.0,0.0,62,0.00,,,0.00,Wunderground v.1.15,2013-03-23 01:57:00,
2013-03-22 22:00:00,42.9,30.0,30.01,SSE,153,0.0,0.0,60,0.00,,,0.00,Wunderground v.1.15,2013-03-23 02:00:00,
2013-03-22 22:03:00,42.8,30.7,30.01,SSE,153,0.0,0.0,62,0.00,,,0.00,Wunderground v.1.15,2013-03-23 02:03:00,
2013-03-22 22:05:00,42.8,30.7,30.01,SSE,152,0.0,0.0,62,0.00,,,0.00,Wunderground v.1.15,2013-03-23 02:05:00,
2013-03-22 22:09:00,42.7,30.6,30.01,SSE,153,0.0,0.0,62,0.00,,,0.00,Wunderground v.1.15,2013-03-23 02:09:00,
2013-03-22 22:10:00,42.7,30.6,30.00,SSE,153,0.0,0.0,62,0.00,,,0.00,Wunderground v.1.15,2013-03-23 02:10:00,
2013-03-22 22:11:00,42.7,30.2,30.01,SSE,152,0.0,0.0,61,0.00,,,0.00,Wunderground v.1.15,2013-03-23 02:11:00,
2013-03-22 22:14:00,42.7,29.8,30.00,SSE,153,0.0,1.0,60,0.00,,,0.00,Wunderground v.1.15,2013-03-23 02:14:00,
2013-03-22 22:15:00,42.7,29.8,30.00,SSE,152,0.0,1.0,60,0.00,,,0.00,Wunderground v.1.15,2013-03-23 02:15:00,
2013-03-22 22:16:00,42.7,30.2,30.00,SSE,153,0.0,1.0,61,0.00,,,0.00,Wunderground v.1.15,2013-03-23 02:16:00,
2013-03-22 22:17:00,42.7,29.8,30.00,SSE,153,0.0,1.0,60,0.00,,,0.00,Wunderground v.1.15,2013-03-23 02:17:00,
2013-03-22 22:19:00,42.7,30.2,30.00,SSE,152,0.0,1.0,61,0.00,,,0.00,Wunderground v.1.15,2013-03-23 02:19:00,
2013-03-22 22:20:00,42.7,30.6,30.00,SSE,152,0.0,0.0,62,0.00,,,0.00,Wunderground v.1.15,2013-03-23 02:20:00,
2013-03-22 22:21:00,42.7,31.4,30.00,SSE,153,0.0,0.0,64,0.00,,,0.00,Wunderground v.1.15,2013-03-23 02:21:00,
2013-03-22 22:22:00,42.7,31.4,30.00,SSE,152,0.0,0.0,64,0.00,,,0.00,Wunderground v.1.15,2013-03-23 02:22:00,
2013-03-22 22:24:00,42.7,31.7,30.00,SSE,153,1.0,1.0,65,0.00,,,0.00,Wunderground v.1.15,2013-03-23 02:24:00,
2013-03-22 22:25:00,42.7,31.4,30.01,SSE,152,1.0,1.0,64,0.00,,,0.00,Wunderground v.1.15,2013-03-23 02:25:00,
2013-03-22 22:26:00,42.6,31.3,30.01,SSE,153,1.0,1.0,64,0.00,,,0.00,Wunderground v.1.15,2013-03-23 02:26:00,
2013-03-22 22:27:00,42.6,30.9,30.01,SSE,153,0.0,1.0,63,0.00,,,0.00,Wunderground v.1.15,2013-03-23 02:27:00,
2013-03-22 22:29:00,42.5,31.2,30.01,SSE,153,0.0,1.0,64,0.00,,,0.00,Wunderground v.1.15,2013-03-23 02:29:00,
2013-03-22 22:30:00,42.5,31.2,30.01,SSE,153,0.0,0.0,64,0.00,,,0.00,Wunderground v.1.15,2013-03-23 02:30:00,
2013-03-22 22:31:00,42.5,31.2,30.01,SSE,152,0.0,0.0,64,0.00,,,0.00,Wunderground v.1.15,2013-03-23 02:31:00,
2013-03-22 22:32:00,42.4,31.1,30.01,SSE,153,0.0,0.0,64,0.00,,,0.00,Wunderground v.1.15,2013-03-23 02:32:00,
2013-03-22 22:34:00,42.5,31.6,30.01,SSE,153,0.0,0.0,65,0.00,,,0.00,Wunderground v.1.15,2013-03-23 02:34:00,
2013-03-22 22:36:00,42.4,31.5,30.02,SSE,153,0.0,0.0,65,0.00,,,0.00,Wunderground v.1.15,2013-03-23 02:36:00,
2013-03-22 22:37:00,42.4,31.5,30.02,SSE,153,0.0,0.0,65,0.00,,,0.00,Wunderground v.1.15,2013-03-23 02:37:00,
2013-03-22 22:38:00,42.4,31.8,30.01,SSE,152,0.0,0.0,66,0.00,,,0.00,Wunderground v.1.15,2013-03-23 02:38:00,
2013-03-22 22:39:00,42.4,32.2,30.01,SSE,153,0.0,0.0,67,0.00,,,0.00,Wunderground v.1.15,2013-03-23 02:39:00,
2013-03-22 22:42:00,42.4,31.8,30.01,SSE,153,0.0,0.0,66,0.00,,,0.00,Wunderground v.1.15,2013-03-23 02:42:00,
2013-03-22 22:43:00,42.4,31.8,30.01,SSE,153,0.0,0.0,66,0.00,,,0.00,Wunderground v.1.15,2013-03-23 02:43:00,
2013-03-22 22:45:00,42.4,32.2,30.01,SSE,153,0.0,0.0,67,0.00,,,0.00,Wunderground v.1.15,2013-03-23 02:45:00,
2013-03-22 22:47:00,42.4,32.2,30.01,SSE,152,0.0,0.0,67,0.00,,,0.00,Wunderground v.1.15,2013-03-23 02:47:00,
2013-03-22 22:48:00,42.4,32.2,30.01,SSE,153,0.0,0.0,67,0.00,,,0.00,Wunderground v.1.15,2013-03-23 02:48:00,
2013-03-22 22:50:00,42.4,31.5,30.01,SSE,153,0.0,0.0,65,0.00,,,0.00,Wunderground v.1.15,2013-03-23 02:50:00,
2013-03-22 22:52:00,42.4,31.5,30.01,SSE,153,0.0,0.0,65,0.00,,,0.00,Wunderground v.1.15,2013-03-23 02:52:00,
2013-03-22 22:53:00,42.4,31.5,30.01,SSE,153,0.0,0.0,65,0.00,,,0.00,Wunderground v.1.15,2013-03-23 02:53:00,
2013-03-22 22:54:00,42.3,31.7,30.02,SSE,152,0.0,0.0,66,0.00,,,0.00,Wunderground v.1.15,2013-03-23 02:54:00,
2013-03-22 22:55:00,42.3,31.4,30.02,SSE,153,0.0,0.0,65,0.00,,,0.00,Wunderground v.1.15,2013-03-23 02:55:00,
2013-03-22 22:58:00,42.4,31.8,30.02,SSE,153,3.0,3.0,66,0.00,,,0.00,Wunderground v.1.15,2013-03-23 02:58:00,
2013-03-22 22:59:00,42.4,31.8,30.02,SSE,153,1.0,3.0,66,0.00,,,0.00,Wunderground v.1.15,2013-03-23 02:59:00,
2013-03-22 23:01:00,42.4,32.2,30.02,SSE,153,0.0,1.0,67,0.00,,,0.00,Wunderground v.1.15,2013-03-23 03:01:00,
2013-03-22 23:03:00,42.4,32.6,30.02,SSE,153,0.0,1.0,68,0.00,,,0.00,Wunderground v.1.15,2013-03-23 03:03:00,
2013-03-22 23:04:00,42.4,32.6,30.02,SSE,153,0.0,1.0,68,0.00,,,0.00,Wunderground v.1.15,2013-03-23 03:04:00,
2013-03-22 23:06:00,42.4,32.6,30.02,SSE,153,0.0,1.0,68,0.00,,,0.00,Wunderground v.1.15,2013-03-23 03:06:00,
2013-03-22 23:08:00,42.4,32.6,30.02,SSE,153,0.0,1.0,68,0.00,,,0.00,Wunderground v.1.15,2013-03-23 03:08:00,
2013-03-22 23:09:00,42.4,34.0,30.02,SSE,152,0.0,1.0,72,0.00,,,0.00,Wunderground v.1.15,2013-03-23 03:09:00,
2013-03-22 23:10:00,42.4,32.6,30.02,SSE,153,0.0,0.0,68,0.00,,,0.00,Wunderground v.1.15,2013-03-23 03:10:00,
2013-03-22 23:12:00,42.4,32.9,30.01,SSE,153,0.0,1.0,69,0.00,,,0.00,Wunderground v.1.15,2013-03-23 03:12:00,
2013-03-22 23:13:00,42.4,32.6,30.01,SSE,152,0.0,1.0,68,0.00,,,0.00,Wunderground v.1.15,2013-03-23 03:13:00,
2013-03-22 23:15:00,42.4,31.8,30.01,SSE,152,0.0,1.0,66,0.00,,,0.00,Wunderground v.1.15,2013-03-23 03:15:00,
2013-03-22 23:17:00,42.4,31.8,30.01,SSE,153,0.0,1.0,66,0.00,,,0.00,Wunderground v.1.15,2013-03-23 03:17:00,
2013-03-22 23:19:00,42.4,31.5,30.01,SSE,153,0.0,1.0,65,0.00,,,0.00,Wunderground v.1.15,2013-03-23 03:19:00,
2013-03-22 23:20:00,42.4,31.5,30.01,SSE,153,0.0,0.0,65,0.00,,,0.00,Wunderground v.1.15,2013-03-23 03:20:00,
2013-03-22 23:22:00,42.4,31.1,30.02,SSE,153,0.0,0.0,64,0.00,,,0.00,Wunderground v.1.15,2013-03-23 03:22:00,
2013-03-22 23:25:00,42.5,31.2,30.02,SSE,153,0.0,0.0,64,0.00,,,0.00,Wunderground v.1.15,2013-03-23 03:25:00,
2013-03-22 23:27:00,42.4,31.1,30.01,SSE,152,0.0,0.0,64,0.00,,,0.00,Wunderground v.1.15,2013-03-23 03:27:00,
2013-03-22 23:30:00,42.5,32.3,30.01,SSE,152,0.0,0.0,67,0.00,,,0.00,Wunderground v.1.15,2013-03-23 03:30:00,
2013-03-22 23:32:00,42.5,32.3,30.02,SSE,152,1.0,1.0,67,0.00,,,0.00,Wunderground v.1.15,2013-03-23 03:32:00,
2013-03-22 23:35:00,42.5,32.3,30.02,SSE,152,0.0,1.0,67,0.00,,,0.00,Wunderground v.1.15,2013-03-23 03:35:00,
2013-03-22 23:37:00,42.5,32.3,30.02,SSE,153,0.0,1.0,67,0.00,,,0.00,Wunderground v.1.15,2013-03-23 03:37:00,
2013-03-22 23:38:00,42.5,32.3,30.02,SSE,152,0.0,1.0,67,0.00,,,0.00,Wunderground v.1.15,2013-03-23 03:38:00,
2013-03-22 23:40:00,42.4,32.2,30.02,SSE,153,0.0,0.0,67,0.00,,,0.00,Wunderground v.1.15,2013-03-23 03:40:00,
2013-03-22 23:41:00,42.4,32.2,30.02,SSE,152,0.0,0.0,67,0.00,,,0.00,Wunderground v.1.15,2013-03-23 03:41:00,
2013-03-22 23:42:00,42.4,32.6,30.02,SSE,153,1.0,1.0,68,0.00,,,0.00,Wunderground v.1.15,2013-03-23 03:42:00,
2013-03-22 23:43:00,42.4,32.6,30.02,SSE,153,0.0,1.0,68,0.00,,,0.00,Wunderground v.1.15,2013-03-23 03:43:00,
2013-03-22 23:46:00,42.4,31.1,30.02,SSE,153,0.0,1.0,64,0.00,,,0.00,Wunderground v.1.15,2013-03-23 03:46:00,
2013-03-22 23:47:00,42.4,31.1,30.02,SSE,153,0.0,1.0,64,0.00,,,0.00,Wunderground v.1.15,2013-03-23 03:47:00,
2013-03-22 23:48:00,42.3,30.6,30.02,SSE,153,0.0,1.0,63,0.00,,,0.00,Wunderground v.1.15,2013-03-23 03:48:00,
2013-03-22 23:51:00,42.4,31.1,30.02,SSE,152,0.0,0.0,64,0.00,,,0.00,Wunderground v.1.15,2013-03-23 03:51:00,
2013-03-22 23:52:00,42.4,31.5,30.02,SSE,152,0.0,0.0,65,0.00,,,0.00,Wunderground v.1.15,2013-03-23 03:52:00,
2013-03-22 23:53:00,42.4,31.1,30.01,SSE,153,0.0,0.0,64,0.00,,,0.00,Wunderground v.1.15,2013-03-23 03:53:00,
2013-03-22 23:54:00,42.3,31.0,30.01,SSE,153,0.0,0.0,64,0.00,,,0.00,Wunderground v.1.15,2013-03-23 03:54:00,
2013-03-22 23:57:00,42.3,31.0,30.01,SSE,153,0.0,0.0,64,0.00,,,0.00,Wunderground v.1.15,2013-03-23 03:57:00,
2013-03-22 23:58:00,42.4,30.7,30.01,SSE,153,0.0,0.0,63,0.00,,,0.00,Wunderground v.1.15,2013-03-23 03:58:00,
2013-03-22 23:59:00,42.4,30.7,30.01,SSE,153,0.0,1.0,63,0.00,,,0.00,Wunderground v.1.15,2013-03-23 03:59:00,